LiveATC.Net - Listen to live air traffic control over the Internet!
Airport/ARTCC Code
Frequency Search
(e.g., 124.400, 128.75)
Site-wide search
 


Browse Feeds
Top 50 Feeds
HF Oceanic Feeds
Coverage Map
Bad Weather Areas

LiveATC FAQ
Offer LiveATC feed
Contact LiveATC.net
Press Inquiries

LiveATC on iPhone
LiveATC on Android

Windows Phone
Windows 8/10

LiveATC Mobile
(Mobile browser)

ATC Audio Archives
Interesting Recordings

LiveATC Forums

Home Page
About LiveATC.net
Make a Donation
Terms of Use
Privacy Policy

Canadian Air Freqs

AIRMETs/SIGMETs

FAA Airport Status
Nat'l Airspace Status
Arrival Demand Charts


Server Software By:
Icecast.org
Liquidsoap

Select an area of interest:
U.S. Feeds: Class B Airports | Class C Airports | Class D/Other Airports | ARTCC (Centers)
International Feeds: Canada | Europe | Oceania | Asia | South America | North/Central America | Africa
Misc Feeds: HF Feeds
Search by ICAO/IATA airport code:   (e.g., kbos, kjfk, lax, eham, etc.)


Currently Available Live Feeds: 2833
Status Updated: Thu Apr 22 2021 01:43:21 UTC


NOTICE

Unauthorized use prohibited. See LiveATC.net Terms of Service

Europe Airport Feeds

 

EFKU Tower/Approach (Archives)
Siilinjarvi, Finland

Feed Status: UP
Listen in your browser - HTML5 player(in browser, HTML5)
Click here to listen with your own player(launches your MP3 player)

EFKU 220120Z AUTO VRB02KT 1800 -RA BKN002 OVC044 01/01 Q1000

EFKU Flight Activity (Flightaware)

Listeners: 2 out of 1156 total

Kuopio Approach: 130.600
Kuopio Tower: 120.150

Dutch Mil Radar (Archives)
Amsterdam, Netherlands

Feed Status: UP
Listen in your browser - HTML5 player(in browser, HTML5)
Click here to listen with your own player(launches your MP3 player)

EHLE 220125Z AUTO 02007KT 9999 OVC034 06/00 Q1024

EHLE Flight Activity (Flightaware)

Listeners: 0 out of 1156 total

Dutch Mil Flight Info: 264.325
Dutch Mil Radar: 128.355
Dutch Mil Radar: 132.350

EHAA Radar ARTIP (Archives)
Amsterdam, Netherlands

Feed Status: UP
Listen in your browser - HTML5 player(in browser, HTML5)
Click here to listen with your own player(launches your MP3 player)

EHAM 220125Z 32004KT 9999 FEW032 03/M01 Q1024 NOSIG

EHAM Flight Activity (Flightaware)

Listeners: 0 out of 1156 total

EHAA Radar Sector 1 ARTIP: 120.550

EHAA Radar East Inbound (Archives)
Amsterdam, Netherlands

Feed Status: UP
Listen in your browser - HTML5 player(in browser, HTML5)
Click here to listen with your own player(launches your MP3 player)

EHAM 220125Z 32004KT 9999 FEW032 03/M01 Q1024 NOSIG

EHAM Flight Activity (Flightaware)

Listeners: 0 out of 1156 total

EHAA Radar Sector 2 East Inbound: 128.575

EHAA Radar East Outbound (Archives)
Amsterdam, Netherlands

Feed Status: UP
Listen in your browser - HTML5 player(in browser, HTML5)
Click here to listen with your own player(launches your MP3 player)

EHAM 220125Z 32004KT 9999 FEW032 03/M01 Q1024 NOSIG

EHAM Flight Activity (Flightaware)

Listeners: 0 out of 1156 total

EHAA Radar Sector 2 East Outbound: 124.875

EHAA Radar North (Archives)
Amsterdam, Netherlands

Feed Status: UP
Listen in your browser - HTML5 player(in browser, HTML5)
Click here to listen with your own player(launches your MP3 player)

EHAM 220125Z 32004KT 9999 FEW032 03/M01 Q1024 NOSIG

EHAM Flight Activity (Flightaware)

Listeners: 0 out of 1156 total

EHAA Radar Sector 1 North: 134.375

EHAA Radar Northwest (Archives)
Amsterdam, Netherlands

Feed Status: UP
Listen in your browser - HTML5 player(in browser, HTML5)
Click here to listen with your own player(launches your MP3 player)

EHAM 220125Z 32004KT 9999 FEW032 03/M01 Q1024 NOSIG

EHAM Flight Activity (Flightaware)

Listeners: 0 out of 1156 total

EHAA Radar Sector 5 Northwest: 123.7000

EHAA Radar RIVER (Archives)
Amsterdam, Netherlands

Feed Status: UP
Listen in your browser - HTML5 player(in browser, HTML5)
Click here to listen with your own player(launches your MP3 player)

EHAM 220125Z 32004KT 9999 FEW032 03/M01 Q1024 NOSIG

EHAM Flight Activity (Flightaware)

Listeners: 0 out of 1156 total

EHAA Radar Sector 3 RIVER: 130.950

EHAA Radar South (Archives)
Amsterdam, Netherlands

Feed Status: UP
Listen in your browser - HTML5 player(in browser, HTML5)
Click here to listen with your own player(launches your MP3 player)

EHAM 220125Z 32004KT 9999 FEW032 03/M01 Q1024 NOSIG

EHAM Flight Activity (Flightaware)

Listeners: 0 out of 1156 total

EHAA Radar Sector 3 South: 123.850

EHAA Radar South (Backup) (Archives)
Amsterdam, Netherlands

Feed Status: UP
Listen in your browser - HTML5 player(in browser, HTML5)
Click here to listen with your own player(launches your MP3 player)

EHAM 220125Z 32004KT 9999 FEW032 03/M01 Q1024 NOSIG

EHAM Flight Activity (Flightaware)

Listeners: 0 out of 1156 total

EHAA Radar Sector 3 South Backup : 127.775

EHAA Radar Southwest (Archives)
Amsterdam, Netherlands

Feed Status: UP
Listen in your browser - HTML5 player(in browser, HTML5)
Click here to listen with your own player(launches your MP3 player)

EHAM 220125Z 32004KT 9999 FEW032 03/M01 Q1024 NOSIG

EHAM Flight Activity (Flightaware)

Listeners: 0 out of 1156 total

EHAA Radar Sector 4 Southwest: 125.750

EHAA Radar SUGOL (Archives)
Amsterdam, Netherlands

Feed Status: UP
Listen in your browser - HTML5 player(in browser, HTML5)
Click here to listen with your own player(launches your MP3 player)

EHAM 220125Z 32004KT 9999 FEW032 03/M01 Q1024 NOSIG

EHAM Flight Activity (Flightaware)

Listeners: 0 out of 1156 total

EHAA Radar Sector 5 SUGOL: 118.800

EHAM Airside Ops Mgr (AOM) (Archives)
Amsterdam, Netherlands

Feed Status: UP
Listen in your browser - HTML5 player(in browser, HTML5)
Click here to listen with your own player(launches your MP3 player)

EHAM 220125Z 32004KT 9999 FEW032 03/M01 Q1024 NOSIG

EHAM Flight Activity (Flightaware)

Listeners: 0 out of 1156 total

Schiphol Airside Operations Manager: 130.475

EHAM App/Dep Backup (Archives)
Amsterdam, Netherlands

Feed Status: UP
Listen in your browser - HTML5 player(in browser, HTML5)
Click here to listen with your own player(launches your MP3 player)

EHAM 220125Z 32004KT 9999 FEW032 03/M01 Q1024 NOSIG

EHAM Flight Activity (Flightaware)

Listeners: 0 out of 1156 total

Schiphol App/Dep Backup: 118.075

EHAM App/Dep TMA East (Archives)
Amsterdam, Netherlands

Feed Status: UP
Listen in your browser - HTML5 player(in browser, HTML5)
Click here to listen with your own player(launches your MP3 player)

EHAM 220125Z 32004KT 9999 FEW032 03/M01 Q1024 NOSIG

EHAM Flight Activity (Flightaware)

Listeners: 1 out of 1156 total

Amsterdam Approach/Departure TMA East: 119.055

EHAM App/Dep TMA West (Archives)
Amsterdam, Netherlands

Feed Status: UP
Listen in your browser - HTML5 player(in browser, HTML5)
Click here to listen with your own player(launches your MP3 player)

EHAM 220125Z 32004KT 9999 FEW032 03/M01 Q1024 NOSIG

EHAM Flight Activity (Flightaware)

Listeners: 0 out of 1156 total

Amsterdam Approach/Departure TMA West: 121.200

EHAM Apron (North) (Archives)
Amsterdam, Netherlands

Feed Status: UP
Listen in your browser - HTML5 player(in browser, HTML5)
Click here to listen with your own player(launches your MP3 player)

EHAM 220125Z 32004KT 9999 FEW032 03/M01 Q1024 NOSIG

EHAM Flight Activity (Flightaware)

Listeners: 0 out of 1156 total

Schiphol Apron (North): 121.880

EHAM Apron (South) (Archives)
Amsterdam, Netherlands

Feed Status: UP
Listen in your browser - HTML5 player(in browser, HTML5)
Click here to listen with your own player(launches your MP3 player)

EHAM 220125Z 32004KT 9999 FEW032 03/M01 Q1024 NOSIG

EHAM Flight Activity (Flightaware)

Listeners: 0 out of 1156 total

Schiphol Apron (South): 121.780

EHAM Arrival (Primary) (Archives)
Amsterdam, Netherlands

Feed Status: UP
Listen in your browser - HTML5 player(in browser, HTML5)
Click here to listen with your own player(launches your MP3 player)

EHAM 220125Z 32004KT 9999 FEW032 03/M01 Q1024 NOSIG

EHAM Flight Activity (Flightaware)

Listeners: 0 out of 1156 total

Amsterdam Arrival : 118.400

EHAM Arrival (Secondary) (Archives)
Amsterdam, Netherlands

Feed Status: UP
Listen in your browser - HTML5 player(in browser, HTML5)
Click here to listen with your own player(launches your MP3 player)

EHAM 220125Z 32004KT 9999 FEW032 03/M01 Q1024 NOSIG

EHAM Flight Activity (Flightaware)

Listeners: 0 out of 1156 total

Amsterdam Arrival (Secondary): 131.150

EHAM Arrival (Secondary/Backup) (Archives)
Amsterdam, Netherlands

Feed Status: UP
Listen in your browser - HTML5 player(in browser, HTML5)
Click here to listen with your own player(launches your MP3 player)

EHAM 220125Z 32004KT 9999 FEW032 03/M01 Q1024 NOSIG

EHAM Flight Activity (Flightaware)

Listeners: 0 out of 1156 total

Amsterdam Arrival (Secondary Backup): 131.275

EHAM Arrival Backup/Discrete (Archives)
Amsterdam, Netherlands

Feed Status: UP
Listen in your browser - HTML5 player(in browser, HTML5)
Click here to listen with your own player(launches your MP3 player)

EHAM 220125Z 32004KT 9999 FEW032 03/M01 Q1024 NOSIG

EHAM Flight Activity (Flightaware)

Listeners: 0 out of 1156 total

Schiphol Arrival Backup: 126.675

EHAM Clearance Delivery (Archives)
Amsterdam, Netherlands

Feed Status: UP
Listen in your browser - HTML5 player(in browser, HTML5)
Click here to listen with your own player(launches your MP3 player)

EHAM 220125Z 32004KT 9999 FEW032 03/M01 Q1024 NOSIG

EHAM Flight Activity (Flightaware)

Listeners: 0 out of 1156 total

Schiphol Clearance Delivery: 121.980

EHAM Ground (Backup) (Archives)
Amsterdam, Netherlands

Feed Status: UP
Listen in your browser - HTML5 player(in browser, HTML5)
Click here to listen with your own player(launches your MP3 player)

EHAM 220125Z 32004KT 9999 FEW032 03/M01 Q1024 NOSIG

EHAM Flight Activity (Flightaware)

Listeners: 1 out of 1156 total

Schiphol Ground (Backup): 122.425

EHAM Ground (North) (Archives)
Amsterdam, Netherlands

Feed Status: UP
Listen in your browser - HTML5 player(in browser, HTML5)
Click here to listen with your own player(launches your MP3 player)

EHAM 220125Z 32004KT 9999 FEW032 03/M01 Q1024 NOSIG

EHAM Flight Activity (Flightaware)

Listeners: 0 out of 1156 total

Schiphol Ground (North): 121.805

EHAM Ground (South) (Archives)
Amsterdam, Netherlands

Feed Status: UP
Listen in your browser - HTML5 player(in browser, HTML5)
Click here to listen with your own player(launches your MP3 player)

EHAM 220125Z 32004KT 9999 FEW032 03/M01 Q1024 NOSIG

EHAM Flight Activity (Flightaware)

Listeners: 0 out of 1156 total

Schiphol Ground (South): 121.705

EHAM Ground (West) (Archives)
Amsterdam, Netherlands

Feed Status: UP
Listen in your browser - HTML5 player(in browser, HTML5)
Click here to listen with your own player(launches your MP3 player)

EHAM 220125Z 32004KT 9999 FEW032 03/M01 Q1024 NOSIG

EHAM Flight Activity (Flightaware)

Listeners: 0 out of 1156 total

Schiphol Ground (West): 121.560

EHAM Info North Sea (North) (Archives)
Amsterdam, Netherlands

Feed Status: UP
Listen in your browser - HTML5 player(in browser, HTML5)
Click here to listen with your own player(launches your MP3 player)

EHAM 220125Z 32004KT 9999 FEW032 03/M01 Q1024 NOSIG

EHAM Flight Activity (Flightaware)

Listeners: 0 out of 1156 total

Amsterdam Info North Sea (North): 119.175

EHAM Info North Sea (Over Land) (Archives)
Amsterdam, Netherlands

Feed Status: UP
Listen in your browser - HTML5 player(in browser, HTML5)
Click here to listen with your own player(launches your MP3 player)

EHAM 220125Z 32004KT 9999 FEW032 03/M01 Q1024 NOSIG

EHAM Flight Activity (Flightaware)

Listeners: 0 out of 1156 total

Amsterdam Info North Sea (Over Land): 124.300

EHAM Info North Sea (South) (Archives)
Amsterdam, Netherlands

Feed Status: UP
Listen in your browser - HTML5 player(in browser, HTML5)
Click here to listen with your own player(launches your MP3 player)

EHAM 220125Z 32004KT 9999 FEW032 03/M01 Q1024 NOSIG

EHAM Flight Activity (Flightaware)

Listeners: 0 out of 1156 total

Amsterdam Info North Sea (South): 136.650

EHAM Schiphol Outbound Planner (Archives)
Amsterdam, Netherlands

Feed Status: UP
Listen in your browser - HTML5 player(in browser, HTML5)
Click here to listen with your own player(launches your MP3 player)

EHAM 220125Z 32004KT 9999 FEW032 03/M01 Q1024 NOSIG

EHAM Flight Activity (Flightaware)

Listeners: 0 out of 1156 total

Schiphol Outbound Planner: 121.655

EHAM Tow Traffic (Archives)
Amsterdam, Netherlands

Feed Status: UP
Listen in your browser - HTML5 player(in browser, HTML5)
Click here to listen with your own player(launches your MP3 player)

EHAM 220125Z 32004KT 9999 FEW032 03/M01 Q1024 NOSIG

EHAM Flight Activity (Flightaware)

Listeners: 0 out of 1156 total

Schiphol Tow Traffic: 134.875

EHAM Tower (06/24) (Archives)
Amsterdam, Netherlands

Feed Status: UP
Listen in your browser - HTML5 player(in browser, HTML5)
Click here to listen with your own player(launches your MP3 player)

EHAM 220125Z 32004KT 9999 FEW032 03/M01 Q1024 NOSIG

EHAM Flight Activity (Flightaware)

Listeners: 0 out of 1156 total

Schiphol Tower Main 06/24: 135.110

EHAM Tower (18C/36C-27/09) (Archives)
Amsterdam, Netherlands

Feed Status: UP
Listen in your browser - HTML5 player(in browser, HTML5)
Click here to listen with your own player(launches your MP3 player)

EHAM 220125Z 32004KT 9999 FEW032 03/M01 Q1024 NOSIG

EHAM Flight Activity (Flightaware)

Listeners: 0 out of 1156 total

Schiphol Tower Main 18C/36C - 27/09: 118.100

EHAM Tower (18L/36R-22/04) (Archives)
Amsterdam, Netherlands

Feed Status: UP
Listen in your browser - HTML5 player(in browser, HTML5)
Click here to listen with your own player(launches your MP3 player)

EHAM 220125Z 32004KT 9999 FEW032 03/M01 Q1024 NOSIG

EHAM Flight Activity (Flightaware)

Listeners: 0 out of 1156 total

Schiphol Tower Main 18L/36R - 22/04: 119.225

EHAM Tower Backup (Archives)
Amsterdam, Netherlands

Feed Status: UP
Listen in your browser - HTML5 player(in browser, HTML5)
Click here to listen with your own player(launches your MP3 player)

EHAM 220125Z 32004KT 9999 FEW032 03/M01 Q1024 NOSIG

EHAM Flight Activity (Flightaware)

Listeners: 0 out of 1156 total

Schiphol Tower Backup: 119.905

EHAM Tower West (18R/36L) (Archives)
Amsterdam, Netherlands

Feed Status: UP
Listen in your browser - HTML5 player(in browser, HTML5)
Click here to listen with your own player(launches your MP3 player)

EHAM 220125Z 32004KT 9999 FEW032 03/M01 Q1024 NOSIG

EHAM Flight Activity (Flightaware)

Listeners: 0 out of 1156 total

Schiphol Tower West 18R/36L: 118.280

EHBK ATIS (Archives)
Beek, Netherlands

Feed Status: UP
Listen in your browser - HTML5 player(in browser, HTML5)
Click here to listen with your own player(launches your MP3 player)

EHBK 220125Z AUTO 04007KT 9999 FEW031 02/M01 Q1023 NOSIG

EHBK Flight Activity (Flightaware)

Listeners: 0 out of 1156 total

Beek ATIS: 124.575

EHBK Gnd/Twr/App (Archives)
Beek, Netherlands

Feed Status: UP
Listen in your browser - HTML5 player(in browser, HTML5)
Click here to listen with your own player(launches your MP3 player)

EHBK 220125Z AUTO 04007KT 9999 FEW031 02/M01 Q1023 NOSIG

EHBK Flight Activity (Flightaware)

Listeners: 3 out of 1156 total

Beek Approach: 120.200
Beek Approach: 123.975
Beek Ground: 121.825
Beek Tower: 119.475
Beek Tower: 119.700

MUAC/Eurocontrol Delta High (Archives)
Beek, Netherlands

Feed Status: UP
Listen in your browser - HTML5 player(in browser, HTML5)
Click here to listen with your own player(launches your MP3 player)

EHBK 220125Z AUTO 04007KT 9999 FEW031 02/M01 Q1023 NOSIG

EHBK Flight Activity (Flightaware)

Listeners: 0 out of 1156 total

MUAC Delta High Sector: 132.085

MUAC/Eurocontrol Koksy (Archives)
Beek, Netherlands

Feed Status: UP
Listen in your browser - HTML5 player(in browser, HTML5)
Click here to listen with your own player(launches your MP3 player)

EHBK 220125Z AUTO 04007KT 9999 FEW031 02/M01 Q1023 NOSIG

EHBK Flight Activity (Flightaware)

Listeners: 0 out of 1156 total

MUAC Koksy Sector: 132.205

MUAC/Eurocontrol Koksy High (Archives)
Beek, Netherlands

Feed Status: UP
Listen in your browser - HTML5 player(in browser, HTML5)
Click here to listen with your own player(launches your MP3 player)

EHBK 220125Z AUTO 04007KT 9999 FEW031 02/M01 Q1023 NOSIG

EHBK Flight Activity (Flightaware)

Listeners: 1 out of 1156 total

MUAC Koksy High Sector: 132.755

MUAC/Eurocontrol Lux High (Archives)
Beek, Netherlands

Feed Status: UP
Listen in your browser - HTML5 player(in browser, HTML5)
Click here to listen with your own player(launches your MP3 player)

EHBK 220125Z AUTO 04007KT 9999 FEW031 02/M01 Q1023 NOSIG

EHBK Flight Activity (Flightaware)

Listeners: 1 out of 1156 total

MUAC Lux High Sector: 132.315

MUAC/Eurocontrol Lux Low (Archives)
Beek, Netherlands

Feed Status: UP
Listen in your browser - HTML5 player(in browser, HTML5)
Click here to listen with your own player(launches your MP3 player)

EHBK 220125Z AUTO 04007KT 9999 FEW031 02/M01 Q1023 NOSIG

EHBK Flight Activity (Flightaware)

Listeners: 0 out of 1156 total

MUAC Lux Low Sector: 133.355

MUAC/Eurocontrol Olno Low (Archives)
Beek, Netherlands

Feed Status: UP
Listen in your browser - HTML5 player(in browser, HTML5)
Click here to listen with your own player(launches your MP3 player)

EHBK 220125Z AUTO 04007KT 9999 FEW031 02/M01 Q1023 NOSIG

EHBK Flight Activity (Flightaware)

Listeners: 0 out of 1156 total

MUAC Olno Low Sector: 132.855

MUAC/Eurocontrol Ruhr (Archives)
Beek, Netherlands

Feed Status: UP
Listen in your browser - HTML5 player(in browser, HTML5)
Click here to listen with your own player(launches your MP3 player)

EHBK 220125Z AUTO 04007KT 9999 FEW031 02/M01 Q1023 NOSIG

EHBK Flight Activity (Flightaware)

Listeners: 1 out of 1156 total

MUAC Ruhr Sector: 132.515

EHEH Approach #1 (Archives)
Eindhoven, Netherlands

Feed Status: UP
Listen in your browser - HTML5 player(in browser, HTML5)
Click here to listen with your own player(launches your MP3 player)

EHEH 220125Z AUTO 01003KT 9999 NCD 03/M01 Q1024 BLU

EHEH Flight Activity (Flightaware)

Listeners: 0 out of 1156 total

DutchMil: 132.530
DutchMil RAPCON South: 379.925
DutchMil RAPCON South: 123.180
Eindhoven Arrival/Director: 124.530

EHEH Ground
Eindhoven, Netherlands

Feed Status: DOWN
Offline since: 2020-04-23 06:00:22 UTC

EHEH 220125Z AUTO 01003KT 9999 NCD 03/M01 Q1024 BLU

Eindhoven Ground: 121.930
Eindhoven Ground: 369.250

EHEH Tower #1 (Archives)
Eindhoven, Netherlands

Feed Status: UP
Listen in your browser - HTML5 player(in browser, HTML5)
Click here to listen with your own player(launches your MP3 player)

EHEH 220125Z AUTO 01003KT 9999 NCD 03/M01 Q1024 BLU

EHEH Flight Activity (Flightaware)

Listeners: 0 out of 1156 total

Budel Tower: 122.155
Eindhoven Tower: 131.005
Emergency/Guard: 121.500
Generic Tower: 122.100
Volkel Tower: 372.225
Volkel Tower: 136.080

EHEH Tower #2
Eindhoven, Netherlands

Feed Status: DOWN
Offline since: 2020-04-23 06:00:22 UTC

EHEH 220125Z AUTO 01003KT 9999 NCD 03/M01 Q1024 BLU

Eindhoven Tower: 122.100
Eindhoven Tower: 131.005
Eindhoven Tower: 281.150

EHGG Approach (Archives)
Groningen, Netherlands

Feed Status: UP
Listen in your browser - HTML5 player(in browser, HTML5)
Click here to listen with your own player(launches your MP3 player)

EHGG 220125Z AUTO 32007KT 280V340 9999 FEW028 BKN034 OVC039 06/00 Q1023 NOSIG

EHGG Flight Activity (Flightaware)

Listeners: 0 out of 1156 total

Eelde Approach: 120.305

EHGG ATIS (Archives)
Groningen, Netherlands

Feed Status: UP
Listen in your browser - HTML5 player(in browser, HTML5)
Click here to listen with your own player(launches your MP3 player)

EHGG 220125Z AUTO 32007KT 280V340 9999 FEW028 BKN034 OVC039 06/00 Q1023 NOSIG

EHGG Flight Activity (Flightaware)

Listeners: 0 out of 1156 total

Groningen ATIS: 133.555

EHGG Ground (Archives)
Groningen, Netherlands

Feed Status: UP
Listen in your browser - HTML5 player(in browser, HTML5)
Click here to listen with your own player(launches your MP3 player)

EHGG 220125Z AUTO 32007KT 280V340 9999 FEW028 BKN034 OVC039 06/00 Q1023 NOSIG

EHGG Flight Activity (Flightaware)

Listeners: 0 out of 1156 total

Eelde Clearance Delivery/Ground: 121.705

EHGG Guard/Emergency (Archives)
Groningen, Netherlands

Feed Status: UP
Listen in your browser - HTML5 player(in browser, HTML5)
Click here to listen with your own player(launches your MP3 player)

EHGG 220125Z AUTO 32007KT 280V340 9999 FEW028 BKN034 OVC039 06/00 Q1023 NOSIG

EHGG Flight Activity (Flightaware)

Listeners: 0 out of 1156 total

Emergency/Guard: 121.500

EHGG Tower (Archives)
Groningen, Netherlands

Feed Status: UP
Listen in your browser - HTML5 player(in browser, HTML5)
Click here to listen with your own player(launches your MP3 player)

EHGG 220125Z AUTO 32007KT 280V340 9999 FEW028 BKN034 OVC039 06/00 Q1023 NOSIG

EHGG Flight Activity (Flightaware)

Listeners: 1 out of 1156 total

Eelde Tower: 118.705

EHGG Twr/App (Secondary) (Archives)
Groningen, Netherlands

Feed Status: UP
Listen in your browser - HTML5 player(in browser, HTML5)
Click here to listen with your own player(launches your MP3 player)

EHGG 220125Z AUTO 32007KT 280V340 9999 FEW028 BKN034 OVC039 06/00 Q1023 NOSIG

EHGG Flight Activity (Flightaware)

Listeners: 0 out of 1156 total

Eelde Tower/App (Backup): 119.705

MUAC/Eurocontrol (EHGG Area) (Archives)
Groningen, Netherlands

Feed Status: UP
Listen in your browser - HTML5 player(in browser, HTML5)
Click here to listen with your own player(launches your MP3 player)

EHGG 220125Z AUTO 32007KT 280V340 9999 FEW028 BKN034 OVC039 06/00 Q1023 NOSIG

EHGG Flight Activity (Flightaware)

Listeners: 0 out of 1156 total

MUAC Holstein High Sector: 132.775
MUAC Holstein Sector: 120.9333
MUAC Javer High Sector: 134.700
MUAC Jever Sector: 136.4666

EHGR Ground (Archives)
Breda, Netherlands

Feed Status: UP
Listen in your browser - HTML5 player(in browser, HTML5)
Click here to listen with your own player(launches your MP3 player)

EHGR 220125Z AUTO VRB02KT 9999 NCD 02/M01 Q1024 BLU

EHGR Flight Activity (Flightaware)

Listeners: 0 out of 1156 total

Gilze Rijen Ground: 121.680

EHGR Ground/Tower (Archives)
Breda, Netherlands

Feed Status: UP
Listen in your browser - HTML5 player(in browser, HTML5)
Click here to listen with your own player(launches your MP3 player)

EHGR 220125Z AUTO VRB02KT 9999 NCD 02/M01 Q1024 BLU

EHGR Flight Activity (Flightaware)

Listeners: 0 out of 1156 total

Gilze Rijen Ground: 121.680
Gilze Rijen Tower: 125.330

EHGR Tower (Archives)
Breda, Netherlands

Feed Status: UP
Listen in your browser - HTML5 player(in browser, HTML5)
Click here to listen with your own player(launches your MP3 player)

EHGR 220125Z AUTO VRB02KT 9999 NCD 02/M01 Q1024 BLU

EHGR Flight Activity (Flightaware)

Listeners: 0 out of 1156 total

Gilze Rijen Tower: 125.330

EHHV CTAF (Archives)
Hilversum, Netherlands

Feed Status: UP
Listen in your browser - HTML5 player(in browser, HTML5)
Click here to listen with your own player(launches your MP3 player)

EHHV Flight Activity (Flightaware)

Listeners: 0 out of 1156 total

Hilversum Radio: 131.030

EHKD ATIS (Archives)
Den Helder, Netherlands

Feed Status: UP
Listen in your browser - HTML5 player(in browser, HTML5)
Click here to listen with your own player(launches your MP3 player)

EHKD 220125Z AUTO 35006KT 310V030 9999 OVC033 06/M00 Q1024 BLU

EHKD Flight Activity (Flightaware)

Listeners: 0 out of 1156 total

De Kooy ATIS: 133.015

EHKD Ground/Tower (Archives)
Den Helder, Netherlands

Feed Status: UP
Listen in your browser - HTML5 player(in browser, HTML5)
Click here to listen with your own player(launches your MP3 player)

EHKD 220125Z AUTO 35006KT 310V030 9999 OVC033 06/M00 Q1024 BLU

EHKD Flight Activity (Flightaware)

Listeners: 1 out of 1156 total

De Kooy Ground: 121.730
De Kooy Tower: 120.130

Approach/Dutch Mil Radar (Archives)
Lelystad, Netherlands

Feed Status: UP
Listen in your browser - HTML5 player(in browser, HTML5)
Click here to listen with your own player(launches your MP3 player)

EHLE 220125Z AUTO 02007KT 9999 OVC034 06/00 Q1024

EHLE Flight Activity (Flightaware)

Listeners: 0 out of 1156 total

Dutch Mil Flight Info: 264.325
Dutch Mil Radar: 128.355
Dutch Mil Radar: 132.350

EHLE Tower (Archives)
Lelystad, Netherlands

Feed Status: UP
Listen in your browser - HTML5 player(in browser, HTML5)
Click here to listen with your own player(launches your MP3 player)

EHLE 220125Z AUTO 02007KT 9999 OVC034 06/00 Q1024

EHLE Flight Activity (Flightaware)

Listeners: 0 out of 1156 total

Lelystad Clearance Delivery: 123.680
Lelystad Tower: 135.180
Lelystad Tower: 123.830

EHMC/EHML Military/Radar
Nieuw-Milligen, Netherlands

Feed Status: DOWN
Offline since: 2020-10-08 18:29:22 UTC

AMCC: 234.000
Belga Radar: 129.325
Command Post: 313.550
Dutch Military Radar: 120.825
Dutch Military Radar: 125.925
Dutch Military Radar: 128.350
GCI: 363.100
Lippe Radar: 131.075
London Mil: 135.275
Meteo: 284.425

EHMC/EHML Military/Radar
Nieuw-Milligen, Netherlands

Feed Status: DOWN
Offline since: 2020-10-08 18:29:22 UTC

AMCC: 234.000
Belga Radar: 129.325
Command Post: 313.550
Dutch Military Radar: 120.825
Dutch Military Radar: 125.925
Dutch Military Radar: 128.350
GCI: 363.100
Lippe Radar: 131.075
London Mil: 135.275
Meteo: 284.425

EHMM CTAF (Archives)
Middenmeer, Netherlands

Feed Status: UP
Listen in your browser - HTML5 player(in browser, HTML5)
Click here to listen with your own player(launches your MP3 player)

EHMM Flight Activity (Flightaware)

Listeners: 0 out of 1156 total

Middenmeer CTAF: 123.425

EHMZ (Archives)
Middelburg, Netherlands

Feed Status: UP
Listen in your browser - HTML5 player(in browser, HTML5)
Click here to listen with your own player(launches your MP3 player)

EHMZ Flight Activity (Flightaware)

Listeners: 0 out of 1156 total

Midden-Zeeland Radio: 119.255

EHRD Approach (Archives)
Rotterdam, Netherlands

Feed Status: UP
Listen in your browser - HTML5 player(in browser, HTML5)
Click here to listen with your own player(launches your MP3 player)

EHRD 220125Z AUTO 01006KT 9999 NCD 04/M00 Q1025 NOSIG

EHRD Flight Activity (Flightaware)

Listeners: 0 out of 1156 total

Rotterdam Approach: 122.990
Rotterdam Approach: 124.535
Rotterdam Approach: 281.050

EHRD Clearance Delivery (Archives)
Rotterdam, Netherlands

Feed Status: UP
Listen in your browser - HTML5 player(in browser, HTML5)
Click here to listen with your own player(launches your MP3 player)

EHRD 220125Z AUTO 01006KT 9999 NCD 04/M00 Q1025 NOSIG

EHRD Flight Activity (Flightaware)

Listeners: 0 out of 1156 total

Rotterdam Del/Gnd: 122.180

EHRD Del/Twr (Archives)
Rotterdam, Netherlands

Feed Status: UP
Listen in your browser - HTML5 player(in browser, HTML5)
Click here to listen with your own player(launches your MP3 player)

EHRD 220125Z AUTO 01006KT 9999 NCD 04/M00 Q1025 NOSIG

EHRD Flight Activity (Flightaware)

Listeners: 1 out of 1156 total

Rotterdam Del/Gnd: 122.180
Rotterdam Tower: 118.205

EHRD Gnd/Twr/App (Archives)
Rotterdam, Netherlands

Feed Status: UP
Listen in your browser - HTML5 player(in browser, HTML5)
Click here to listen with your own player(launches your MP3 player)

EHRD 220125Z AUTO 01006KT 9999 NCD 04/M00 Q1025 NOSIG

EHRD Flight Activity (Flightaware)

Listeners: 1 out of 1156 total

Adam Info: 124.300
Regional Guard: 119.705
Rotterdam Approach: 127.025
Rotterdam Del/Gnd: 122.180
Rotterdam Tower: 118.205
SAR: 123.100
SAR: 282.800

EHRD Tower (Archives)
Rotterdam, Netherlands

Feed Status: UP
Listen in your browser - HTML5 player(in browser, HTML5)
Click here to listen with your own player(launches your MP3 player)

EHRD 220125Z AUTO 01006KT 9999 NCD 04/M00 Q1025 NOSIG

EHRD Flight Activity (Flightaware)

Listeners: 0 out of 1156 total

Rotterdam Tower: 118.205
Rotterdam Tower: 362.300

EHRD Twr/App
Rotterdam, Netherlands

Feed Status: DOWN
Offline since: 2020-03-14 14:15:39 UTC

EHRD 220125Z AUTO 01006KT 9999 NCD 04/M00 Q1025 NOSIG

Rotterdam Approach: 127.025
Rotterdam Tower: 118.205

EHSE Radio/FIC (Archives)
Bosschenhoofd, Netherlands

Feed Status: UP
Listen in your browser - HTML5 player(in browser, HTML5)
Click here to listen with your own player(launches your MP3 player)

EHSE Flight Activity (Flightaware)

Listeners: 0 out of 1156 total

Dutch MIL Info FIC: 132.350
Seppe Radio (Tower/Ground): 120.655

EHTX Gnd/Twr (Archives)
Texel, Netherlands

Feed Status: UP
Listen in your browser - HTML5 player(in browser, HTML5)
Click here to listen with your own player(launches your MP3 player)

EHTX Flight Activity (Flightaware)

Listeners: 0 out of 1156 total

Texel Radio (Ground/Tower): 119.300

EHVL CTAF/Range Control (Archives)
Vlieland, Netherlands

Feed Status: UP
Listen in your browser - HTML5 player(in browser, HTML5)
Click here to listen with your own player(launches your MP3 player)

EHVL 220125Z AUTO 36015KT 9999 SCT028 BKN031 06/M01 Q1024 BLU

EHVL Flight Activity (Flightaware)

Listeners: 0 out of 1156 total

Cornfield VHF (CTAF): 122.100
Range Controller (Primary): 291.650
Range Controller (Secondary): 370.300
Range Controller VHF: 138.075

EICK Approach/Departure
Cork, Ireland

Feed Status: DOWN
Offline since: 2021-04-18 16:17:21 UTC

EICK 220100Z 09011KT 9999 SCT020 SCT220 09/07 Q1022 NOSIG

Cork Approach: 119.900

EICK Gnd/Twr/App/Dep
Cork, Ireland

Feed Status: DOWN
Offline since: 2021-04-18 16:18:04 UTC

EICK 220100Z 09011KT 9999 SCT020 SCT220 09/07 Q1022 NOSIG

Cork Approach: 119.900
Cork Ground: 121.850
Cork Tower: 119.300

EICK Ground/Tower
Cork, Ireland

Feed Status: DOWN
Offline since: 2021-04-18 16:17:21 UTC

EICK 220100Z 09011KT 9999 SCT020 SCT220 09/07 Q1022 NOSIG

Cork Ground: 121.850
Cork Tower: 119.300

EIDW Approach (Archives)
Dublin, Ireland

Feed Status: UP
Listen in your browser - HTML5 player(in browser, HTML5)
Click here to listen with your own player(launches your MP3 player)

EIDW 220100Z 05002KT 7000 FEW006 02/02 Q1024 NOSIG

EIDW Flight Activity (Flightaware)

Listeners: 1 out of 1156 total

Dublin Approach: 121.100

EIDW Approach (Final) (Archives)
Dublin, Ireland

Feed Status: UP
Listen in your browser - HTML5 player(in browser, HTML5)
Click here to listen with your own player(launches your MP3 player)

EIDW 220100Z 05002KT 7000 FEW006 02/02 Q1024 NOSIG

EIDW Flight Activity (Flightaware)

Listeners: 1 out of 1156 total

Dublin Approach (Final): 119.925

EIDW Clearance Delivery (Archives)
Dublin, Ireland

Feed Status: UP
Listen in your browser - HTML5 player(in browser, HTML5)
Click here to listen with your own player(launches your MP3 player)

EIDW 220100Z 05002KT 7000 FEW006 02/02 Q1024 NOSIG

EIDW Flight Activity (Flightaware)

Listeners: 1 out of 1156 total

Dublin Clearance Delivery: 121.875

EIDW Del/Gnd/Twr/App/Center (Archives)
Dublin, Ireland

Feed Status: UP
Listen in your browser - HTML5 player(in browser, HTML5)
Click here to listen with your own player(launches your MP3 player)

EIDW 220100Z 05002KT 7000 FEW006 02/02 Q1024 NOSIG

EIDW Flight Activity (Flightaware)

Listeners: 6 out of 1156 total

Dublin Approach: 121.100
Dublin Approach (backup): 119.550
Dublin Centre North: 129.175
Dublin Centre South: 126.250
Dublin Clearance Delivery: 121.875
Dublin FIS: 118.500
Dublin Ground: 121.800
Dublin Tower: 118.600

EIDW Ground (Archives)
Dublin, Ireland

Feed Status: UP
Listen in your browser - HTML5 player(in browser, HTML5)
Click here to listen with your own player(launches your MP3 player)

EIDW 220100Z 05002KT 7000 FEW006 02/02 Q1024 NOSIG

EIDW Flight Activity (Flightaware)

Listeners: 0 out of 1156 total

Dublin Ground: 121.800

EIDW Ground (North) (Archives)
Dublin, Ireland

Feed Status: UP
Listen in your browser - HTML5 player(in browser, HTML5)
Click here to listen with your own player(launches your MP3 player)

EIDW 220100Z 05002KT 7000 FEW006 02/02 Q1024 NOSIG

EIDW Flight Activity (Flightaware)

Listeners: 1 out of 1156 total

Dublin Ground (North): 118.750

EIDW Tower (Archives)
Dublin, Ireland

Feed Status: UP
Listen in your browser - HTML5 player(in browser, HTML5)
Click here to listen with your own player(launches your MP3 player)

EIDW 220100Z 05002KT 7000 FEW006 02/02 Q1024 NOSIG

EIDW Flight Activity (Flightaware)

Listeners: 1 out of 1156 total

Dublin Tower: 118.600

EIKN Gnd/Twr/App
Charlestown, Ireland

Feed Status: DOWN
Offline since: 2021-04-19 02:53:21 UTC


Connaught Ground: 121.900
Connaught Tower: 130.700
Shannon Low Level: 119.075

EINN Shannon Control High (East) (Archives)
Shannon, Ireland

Feed Status: UP
Listen in your browser - HTML5 player(in browser, HTML5)
Click here to listen with your own player(launches your MP3 player)

EINN 220100Z 09005KT 9999 FEW045 10/07 Q1022 NOSIG

EINN Flight Activity (Flightaware)

Listeners: 0 out of 1156 total

Shannon Clearance (Oceanic only): 121.700
Shannon Control: 134.260
Shannon Control: 134.630
Shannon Control: 135.230
Shannon Control: 135.600
Shannon Control: 136.255
Shannon Control (BABAN/DEVOL Sector): 132.150

EINN Shannon Control High (West/Coastal) (Archives)
Shannon, Ireland

Feed Status: UP
Listen in your browser - HTML5 player(in browser, HTML5)
Click here to listen with your own player(launches your MP3 player)

EINN 220100Z 09005KT 9999 FEW045 10/07 Q1022 NOSIG

EINN Flight Activity (Flightaware)

Listeners: 0 out of 1156 total

Shannon Control: 131.150
Shannon Control: 125.880
Shannon Control: 120.040
Shannon Control: 122.980
Shannon Control: 127.130
Shannon Control: 129.665
Shannon Control: 133.360

EINN Shannon Control Low (Archives)
Shannon, Ireland

Feed Status: UP
Listen in your browser - HTML5 player(in browser, HTML5)
Click here to listen with your own player(launches your MP3 player)

EINN 220100Z 09005KT 9999 FEW045 10/07 Q1022 NOSIG

EINN Flight Activity (Flightaware)

Listeners: 0 out of 1156 total

Shannon Control (Low): 119.080
Shannon Control Low: 124.700

EINN Twr/App #1 (Archives)
Shannon, Ireland

Feed Status: UP
Listen in your browser - HTML5 player(in browser, HTML5)
Click here to listen with your own player(launches your MP3 player)

EINN 220100Z 09005KT 9999 FEW045 10/07 Q1022 NOSIG

EINN Flight Activity (Flightaware)

Listeners: 3 out of 1156 total

Aer Lingus Ops: 131.500
Service Air Ops: 131.450
Shannon Approach Radar: 121.400
Shannon Control: Misc
Shannon Ground: 121.800
Shannon Tower: 118.700
Sig Ops (Pre-Clearance): 131.590

ENAT Twr/App/Control (Archives)
Alta, Norway

Feed Status: UP
Listen in your browser - HTML5 player(in browser, HTML5)
Click here to listen with your own player(launches your MP3 player)

ENAT 220120Z AUTO 33014KT 9999 OVC032/// 01/M02 Q1007 RESHUP RERA RMK WIND 700FT 33016KT

ENAT Flight Activity (Flightaware)

Listeners: 0 out of 1156 total

Alta Tower (to boat, Harbour Channel 12): 156.600
Alta Tower (to vehicle): 462.400
Alta Tower/Approach: 120.400
Norway Control: 126.700

ENBO Tower
Bodo, Norway

Feed Status: DOWN
Offline since: 2020-11-13 22:27:21 UTC

ENBO 220120Z 34005KT 9999 FEW030 M00/M05 Q1010

Bodo Tower: 118.100

ENCN Tower/Approach (Archives)
Kristiansand, Norway

Feed Status: UP
Listen in your browser - HTML5 player(in browser, HTML5)
Click here to listen with your own player(launches your MP3 player)

ENCN 220120Z AUTO VRB02KT 9999 NCD 05/M03 Q1015

ENCN Flight Activity (Flightaware)

Listeners: 0 out of 1156 total

Kjevik Tower: 118.100
Kjevik Tower/Approach: 119.950

ENGM App/Polaris ACC (Archives)
Honefoss, Norway

Feed Status: UP
Listen in your browser - HTML5 player(in browser, HTML5)
Click here to listen with your own player(launches your MP3 player)

ENEG Flight Activity (Flightaware)

Listeners: 0 out of 1156 total

ENGM Approach (East): 118.475
ENGM Approach (West): 120.450
Polaris ACC Sector 4: 118.875
Polaris ACC Sector 7: 124.775
Polaris ACC Sector 8: 134.350

ENEV Twr/App/ACC (Archives)
Evenes, Norway

Feed Status: UP
Listen in your browser - HTML5 player(in browser, HTML5)
Click here to listen with your own player(launches your MP3 player)

ENEV 220120Z AUTO 36005KT 9999 BKN059/// M01/M04 Q1010 RMK WIND 1400FT 01009KT

ENEV Flight Activity (Flightaware)

Listeners: 0 out of 1156 total

Evenes Approach: 120.100
Evenes Tower: 118.000
Norway ACC (Bodo Sector 25): 126.450

ENGK Info (Archives)
Arendal, Norway

Feed Status: UP
Listen in your browser - HTML5 player(in browser, HTML5)
Click here to listen with your own player(launches your MP3 player)


ENGK Flight Activity (Flightaware)

Listeners: 0 out of 1156 total

Gullknapp Info: 129.900

ENGM App/Polaris ACC (Archives)
Oslo, Norway

Feed Status: UP
Listen in your browser - HTML5 player(in browser, HTML5)
Click here to listen with your own player(launches your MP3 player)

ENEG Flight Activity (Flightaware)

Listeners: 0 out of 1156 total

ENGM Approach (East): 118.475
ENGM Approach (West): 120.450
Polaris ACC Sector 4: 118.875
Polaris ACC Sector 7: 124.775
Polaris ACC Sector 8: 134.350

ENGM Tower (Archives)
Oslo, Norway

Feed Status: UP
Listen in your browser - HTML5 player(in browser, HTML5)
Click here to listen with your own player(launches your MP3 player)

ENGM 220120Z 35014KT 310V010 CAVOK 02/M08 Q1010

ENGM Flight Activity (Flightaware)

Listeners: 0 out of 1156 total

Oslo Tower (East): 120.100
Oslo Tower (West): 118.300

ENHD Tower (Archives)
Haugesund, Norway

Feed Status: UP
Listen in your browser - HTML5 player(in browser, HTML5)
Click here to listen with your own player(launches your MP3 player)

ENHD Flight Activity (Flightaware)

Listeners: 0 out of 1156 total

Karmoy Tower: 120.500

ENJB CTAF (Archives)
Tonsberg, Norway

Feed Status: UP
Listen in your browser - HTML5 player(in browser, HTML5)
Click here to listen with your own player(launches your MP3 player)

ENTO 220120Z AUTO 34013KT 9999 NCD 04/M07 Q1011

ENTO Flight Activity (Flightaware)

Listeners: 0 out of 1156 total

Jarlsberg CTAF: 122.300

ENKJ RDO #1
Kjeller, Norway

Feed Status: DOWN
Offline since: 2021-02-28 20:58:38 UTC

Kjeller RDO: 119.100

ENKJ RDO #2 (Archives)
Kjeller, Norway

Feed Status: UP
Listen in your browser - HTML5 player(in browser, HTML5)
Click here to listen with your own player(launches your MP3 player)

ENKJ Flight Activity (Flightaware)

Listeners: 0 out of 1156 total

Kjeller RDO: 119.100

ENLI CTAF (Archives)
Farsund, Norway

Feed Status: UP
Listen in your browser - HTML5 player(in browser, HTML5)
Click here to listen with your own player(launches your MP3 player)

ENLI Flight Activity (Flightaware)

Listeners: 0 out of 1156 total

Lista Traffic/Lista Radio: 126.450

ENRK CTAF (Archives)
Astorp, Norway

Feed Status: UP
Listen in your browser - HTML5 player(in browser, HTML5)
Click here to listen with your own player(launches your MP3 player)

ENRK Flight Activity (Flightaware)

Listeners: 0 out of 1156 total

Rakkestad CTAF: 122.950

ENOR Sector 8 (Archives)
Moss, Norway

Feed Status: UP
Listen in your browser - HTML5 player(in browser, HTML5)
Click here to listen with your own player(launches your MP3 player)

ENOR Flight Activity (Flightaware)

Listeners: 0 out of 1156 total

Norway Center (FIR) Sector 8: 118.875

ENRY Tower (Archives)
Moss, Norway

Feed Status: UP
Listen in your browser - HTML5 player(in browser, HTML5)
Click here to listen with your own player(launches your MP3 player)

ENRY 220120Z AUTO 34013KT 9999NDV NCD 04/M07 Q1011

ENRY Flight Activity (Flightaware)

Listeners: 0 out of 1156 total

Rygge Tower: 119.500

ENTC Tower/App
Langnes, Norway

Feed Status: DOWN
Offline since: 2021-04-12 14:28:38 UTC

ENTC 220050Z 14003KT 090V170 9999 FEW014 BKN053 M00/M04 Q1009 RMK WIND 2600FT 33014KT

Langnes Tower: 118.300
Langnes VDF (Approach): 123.750

ENTO App/Dep (Archives)
Sandefjord, Norway

Feed Status: UP
Listen in your browser - HTML5 player(in browser, HTML5)
Click here to listen with your own player(launches your MP3 player)

ENTO 220120Z AUTO 34013KT 9999 NCD 04/M07 Q1011

ENTO Flight Activity (Flightaware)

Listeners: 0 out of 1156 total

Sandefjord Approach (TMA): 134.050

ENTO Control Sector 4 (Archives)
Sandefjord, Norway

Feed Status: UP
Listen in your browser - HTML5 player(in browser, HTML5)
Click here to listen with your own player(launches your MP3 player)

ENTO 220120Z AUTO 34013KT 9999 NCD 04/M07 Q1011

ENTO Flight Activity (Flightaware)

Listeners: 0 out of 1156 total

Norway control Sector 4: 118.875

ENTO Tower (Archives)
Sandefjord, Norway

Feed Status: UP
Listen in your browser - HTML5 player(in browser, HTML5)
Click here to listen with your own player(launches your MP3 player)

ENTO 220120Z AUTO 34013KT 9999 NCD 04/M07 Q1011

ENTO Flight Activity (Flightaware)

Listeners: 0 out of 1156 total

Sandefjord Tower: 118.650

ENTO Tower/App (Archives)
Sandefjord, Norway

Feed Status: UP
Listen in your browser - HTML5 player(in browser, HTML5)
Click here to listen with your own player(launches your MP3 player)

ENTO 220120Z AUTO 34013KT 9999 NCD 04/M07 Q1011

ENTO Flight Activity (Flightaware)

Listeners: 0 out of 1156 total

ENJB Tonsberg Airport - Jarlsberg - CTAF: 122.300
Farris Approach (TCA): 134.050
Sandefjord Tower: 118.650

ENTO Twr/App (Archives)
Sandefjord, Norway

Feed Status: UP
Listen in your browser - HTML5 player(in browser, HTML5)
Click here to listen with your own player(launches your MP3 player)

ENTO 220120Z AUTO 34013KT 9999 NCD 04/M07 Q1011

ENTO Flight Activity (Flightaware)

Listeners: 0 out of 1156 total

Sandefjord Approach (TMA): 134.050
Sandefjord Tower: 118.650

ENVA Gnd/Twr/App (Archives)
Trondheim, Norway

Feed Status: UP
Listen in your browser - HTML5 player(in browser, HTML5)
Click here to listen with your own player(launches your MP3 player)

ENVA 220050Z 29015KT 9999 -DZ BKN015 OVC027 03/M00 Q1014 RESHRA RMK WIND 670FT 28015KT

ENVA Flight Activity (Flightaware)

Listeners: 0 out of 1156 total

Trondheim Approach: 118.600
Trondheim Ground: 121.600
Trondheim Tower: 119.400

ENZV Gnd/Twr/App (Archives)
Stavanger, Norway

Feed Status: UP
Listen in your browser - HTML5 player(in browser, HTML5)
Click here to listen with your own player(launches your MP3 player)

ENZV 220120Z 33018KT 9999 FEW041 OVC070 05/M01 Q1019

ENZV Flight Activity (Flightaware)

Listeners: 1 out of 1156 total

Sola Approach/Departure: 119.600
Sola Ground: 121.750
Sola Tower: 118.350

EPGD Tower/Approach (Archives)
Gdansk, Poland

Feed Status: UP
Listen in your browser - HTML5 player(in browser, HTML5)
Click here to listen with your own player(launches your MP3 player)

EPGD 220100Z 26014KT CAVOK 04/M01 Q1008

EPGD Flight Activity (Flightaware)

Listeners: 1 out of 1156 total

Gdansk Approach: 127.275
Gdansk Tower: 118.100

EPKK Tower/App (Archives)
Krakow, Poland

Feed Status: UP
Listen in your browser - HTML5 player(in browser, HTML5)
Click here to listen with your own player(launches your MP3 player)

EPKK 220100Z 23004KT 190V310 8000 BKN059 07/05 Q1013

EPKK Flight Activity (Flightaware)

Listeners: 1 out of 1156 total

Krakow Approach: 121.075
Krakow Approach: 123.255
Krakow Tower: 123.255

EPKR CTAF
Krosno, Poland

Feed Status: DOWN
Offline since: 2020-11-30 08:45:05 UTC

Krosno CTAF: 122.400

EPKT Del/Twr/App (Archives)
Katowice, Poland

Feed Status: UP
Listen in your browser - HTML5 player(in browser, HTML5)
Click here to listen with your own player(launches your MP3 player)

EPKT 220100Z 22007KT CAVOK 08/03 Q1012

EPKT Flight Activity (Flightaware)

Listeners: 1 out of 1156 total

Katowice Delivery: 121.800
Katowice Tower: 129.250
Krakow Approach: 135.400
Krakow Approach: 121.075

EPKT Delivery/Approach (Archives)
Katowice, Poland

Feed Status: UP
Listen in your browser - HTML5 player(in browser, HTML5)
Click here to listen with your own player(launches your MP3 player)

EPKT 220100Z 22007KT CAVOK 08/03 Q1012

EPKT Flight Activity (Flightaware)

Listeners: 0 out of 1156 total

Katowice Delivery: 121.800
Krakow Approach: 121.075

EPKT Tower/Approach (Archives)
Katowice, Poland

Feed Status: UP
Listen in your browser - HTML5 player(in browser, HTML5)
Click here to listen with your own player(launches your MP3 player)

EPKT 220100Z 22007KT CAVOK 08/03 Q1012

EPKT Flight Activity (Flightaware)

Listeners: 0 out of 1156 total

Katowice Tower: 129.250
Krakow Approach: 135.400

EPLL Tower (Archives)
Lodz, Poland

Feed Status: UP
Listen in your browser - HTML5 player(in browser, HTML5)
Click here to listen with your own player(launches your MP3 player)

EPLL 220100Z 32006KT 300V360 CAVOK 08/03 Q1011

EPLL Flight Activity (Flightaware)

Listeners: 0 out of 1156 total

Lodz Tower: 124.230

EPLS CTAF/Radio (Archives)
Leszno, Poland

Feed Status: UP
Listen in your browser - HTML5 player(in browser, HTML5)
Click here to listen with your own player(launches your MP3 player)

EPLS Flight Activity (Flightaware)

Listeners: 0 out of 1156 total

Leszno Radio: 122.305

EPML Info (Archives)
Mielec, Poland

Feed Status: UP
Listen in your browser - HTML5 player(in browser, HTML5)
Click here to listen with your own player(launches your MP3 player)

EPML Flight Activity (Flightaware)

Listeners: 0 out of 1156 total

Mielec Info: 119.105

EPPO Twr/App/FIS (Archives)
Poznan, Poland

Feed Status: UP
Listen in your browser - HTML5 player(in browser, HTML5)
Click here to listen with your own player(launches your MP3 player)

EPPO 220100Z 30007KT 9999 SCT047 05/M02 Q1013

EPPO Flight Activity (Flightaware)

Listeners: 1 out of 1156 total

Poznan Approach: 129.025
Poznan Approach: 127.225
Poznan FIS: 126.300
Poznan Tower: 119.975

EPRZ Del/Twr/EPWW Radar (Archives)
Jasionka, Poland

Feed Status: UP
Listen in your browser - HTML5 player(in browser, HTML5)
Click here to listen with your own player(launches your MP3 player)

EPRZ 220100Z 20009KT 9999 FEW046 09/06 Q1013

EPRZ Flight Activity (Flightaware)

Listeners: 1 out of 1156 total

EPWW Radar: 134.175
EPWW Radar: 120.950
Rzeszow Delivery: 121.800
Rzeszow Tower: 126.800

EPWA Approach #1 (Archives)
Warsaw, Poland

Feed Status: UP
Listen in your browser - HTML5 player(in browser, HTML5)
Click here to listen with your own player(launches your MP3 player)

EPWA 220100Z 28009KT CAVOK 09/03 Q1010 NOSIG

EPWA Flight Activity (Flightaware)

Listeners: 2 out of 1156 total

Warsaw Approach: 128.805

EPWA Approach #2
Warsaw, Poland

Feed Status: DOWN
Offline since: 2021-02-07 10:30:38 UTC

EPWA 220100Z 28009KT CAVOK 09/03 Q1010 NOSIG

Warsaw Approach: 125.050

EPWA Clearance Delivery
Warsaw, Poland

Feed Status: DOWN
Offline since: 2021-02-07 10:30:38 UTC

EPWA 220100Z 28009KT CAVOK 09/03 Q1010 NOSIG

Warsaw Clearance Delivery: 121.600

EPWA Director (Archives)
Warsaw, Poland

Feed Status: UP
Listen in your browser - HTML5 player(in browser, HTML5)
Click here to listen with your own player(launches your MP3 player)

EPWA 220100Z 28009KT CAVOK 09/03 Q1010 NOSIG

EPWA Flight Activity (Flightaware)

Listeners: 0 out of 1156 total

Warsaw Director: 129.375

EPWA Ground
Warsaw, Poland

Feed Status: DOWN
Offline since: 2021-02-07 10:30:38 UTC

EPWA 220100Z 28009KT CAVOK 09/03 Q1010 NOSIG

Warsaw Ground: 121.900

EPWA Tower #1
Warsaw, Poland

Feed Status: DOWN
Offline since: 2021-02-07 10:30:38 UTC

EPWA 220100Z 28009KT CAVOK 09/03 Q1010 NOSIG

Warsaw Tower: 118.300

EPWA Tower #2 (Archives)
Warsaw, Poland

Feed Status: UP
Listen in your browser - HTML5 player(in browser, HTML5)
Click here to listen with your own player(launches your MP3 player)

EPWA 220100Z 28009KT CAVOK 09/03 Q1010 NOSIG

EPWA Flight Activity (Flightaware)

Listeners: 0 out of 1156 total

Warsaw Tower: 118.300

EPWR Twr/App (Archives)
Wroclaw, Poland

Feed Status: UP
Listen in your browser - HTML5 player(in browser, HTML5)
Click here to listen with your own player(launches your MP3 player)

EPPO 220100Z 30007KT 9999 SCT047 05/M02 Q1013

EPPO Flight Activity (Flightaware)

Listeners: 0 out of 1156 total

Poznan Approach (South): 127.225

EPRZ Del/Twr/EPWW Radar (Archives)
Jasionka, Poland

Feed Status: UP
Listen in your browser - HTML5 player(in browser, HTML5)
Click here to listen with your own player(launches your MP3 player)

EPRZ 220100Z 20009KT 9999 FEW046 09/06 Q1013

EPRZ Flight Activity (Flightaware)

Listeners: 1 out of 1156 total

EPWW Radar: 134.175
EPWW Radar: 120.950
Rzeszow Delivery: 121.800
Rzeszow Tower: 126.800

ESDF Gnd/Twr (Archives)
Ronneby, Sweden

Feed Status: UP
Listen in your browser - HTML5 player(in browser, HTML5)
Click here to listen with your own player(launches your MP3 player)

ESDF 220120Z AUTO 28010KT 9999 BKN028/// OVC040/// 04/01 Q1003

ESDF Flight Activity (Flightaware)

Listeners: 1 out of 1156 total

Ronneby Ground: 121.850
Ronneby Tower: 119.200

ESDF Ronneby Control (Archives)
Ronneby, Sweden

Feed Status: UP
Listen in your browser - HTML5 player(in browser, HTML5)
Click here to listen with your own player(launches your MP3 player)

ESDF 220120Z AUTO 28010KT 9999 BKN028/// OVC040/// 04/01 Q1003

ESDF Flight Activity (Flightaware)

Listeners: 2 out of 1156 total

Ronneby Control: 128.450

ESMQ Tower (Archives)
Kalmar, Sweden

Feed Status: UP
Listen in your browser - HTML5 player(in browser, HTML5)
Click here to listen with your own player(launches your MP3 player)

ESMQ 220120Z AUTO 26013KT 9999 FEW019/// SCT042/// BKN059/// 04/01 Q1000

ESMQ Flight Activity (Flightaware)

Listeners: 1 out of 1156 total

Kalmar Tower: 130.805

ESMS Radar (Archives)
Svedala, Sweden

Feed Status: UP
Listen in your browser - HTML5 player(in browser, HTML5)
Click here to listen with your own player(launches your MP3 player)

ESMS 220120Z 27014KT CAVOK 05/01 Q1008

ESMS Flight Activity (Flightaware)

Listeners: 0 out of 1156 total

Sweden Control (Sector L, Malmo): 134.980

ESMS Tower (Archives)
Svedala, Sweden

Feed Status: UP
Listen in your browser - HTML5 player(in browser, HTML5)
Click here to listen with your own player(launches your MP3 player)

ESMS 220120Z 27014KT CAVOK 05/01 Q1008

ESMS Flight Activity (Flightaware)

Listeners: 1 out of 1156 total

Malmo Tower: 118.800

ESOE Tower/Control (Archives)
Orebro, Sweden

Feed Status: UP
Listen in your browser - HTML5 player(in browser, HTML5)
Click here to listen with your own player(launches your MP3 player)

ESOE 220120Z AUTO 34017KT 9999 -RA FEW014/// 02/M00 Q1001 REUP

ESOE Flight Activity (Flightaware)

Listeners: 0 out of 1156 total

Orebro Tower: 120.275
Orebro Tower: 120.280
Sweden Control: 131.125
Sweden Control (aircraft only): 131.125

ESOW Twr/CTAF/Control (Archives)
Stockholm, Sweden

Feed Status: UP
Listen in your browser - HTML5 player(in browser, HTML5)
Click here to listen with your own player(launches your MP3 player)

ESOW 220120Z AUTO 33013KT 9999 OVC009/// 03/01 Q1000

ESOW Flight Activity (Flightaware)

Listeners: 0 out of 1156 total

Arlanda Approach: 123.750
Arlanda Approach: 126.655
Arlanda Approach: 130.325
Arlanda Departure: 124.100
Arlanda Tower: 118.505
Arlanda Tower: 128.725
Enkoping/Langtora: 123.525
Eskilstuna: 126.850
Frolunda: 123.400
Johannisberg CTAF: 123.650
Ska Edeby: 123.350
Stockholm Control: 120.155
Stockholm Control: 118.405
Stockholm Control: 118.280
Sweden Control: 133.260
Sweden Control: 129.175
Sweden Control: 131.130
Uppsala Tower: 119.200
Uppsala/Sundbro: 123.350
Vasteras Control: 125.955
Vasteras Tower: 130.600

ESPA Twr/Control (Archives)
Lulea, Sweden

Feed Status: UP
Listen in your browser - HTML5 player(in browser, HTML5)
Click here to listen with your own player(launches your MP3 player)

ESPA 220120Z AUTO 34012KT 9999 BKN058/// OVC078/// 02/01 Q1001

ESPA Flight Activity (Flightaware)

Listeners: 0 out of 1156 total

Emergency/Guard: 121.500
Kallax Control: 125.450
Kallax Tower: 128.200
Sweden Control North: 131.050

ESSG Misc (Archives)
Ludvika, Sweden

Feed Status: UP
Listen in your browser - HTML5 player(in browser, HTML5)
Click here to listen with your own player(launches your MP3 player)

ESSG Flight Activity (Flightaware)

Listeners: 0 out of 1156 total

Borlange Tower: 127.305
Club Frequency: 123.375
Club Frequency: 123.450
Club Frequency: 123.425
Club Frequency: 123.525
Club Frequency: 123.350
Club Frequency: 123.300
Club Frequency: 123.200
Club Frequency: 123.550
Club Frequency: 123.600
Club Frequency: 123.650
Emergency/Guard: 121.500
Hagfors Airport: 122.230
Karlstad Airport: 119.455
Ludvika Club Freq: 123.150
Mora Airport: 119.055
Orebro Airport: 120.280
Orsa Club Frequency: 123.400
Orsa Club Frequency: 123.500
Scandinavian Mountains Airport: 124.460
Search and Rescue: 123.100
Sweden Control: 131.055
Sweden Control: 131.125
Sweden Control: 131.155
Sweden Control: 132.765
Sweden Control: 131.130
Sweden Control: 129.180
Sweden Control: 128.630
Sweden Control: 132.150
Torsby Airport: 122.055
Vasteras Control: 125.955

ESSL Twr/App/Control (Archives)
Linkoping, Sweden

Feed Status: UP
Listen in your browser - HTML5 player(in browser, HTML5)
Click here to listen with your own player(launches your MP3 player)

ESSL 220120Z AUTO 27005KT 9999 -RA SCT007/// OVC010/// 01/00 Q1000 RERASN

ESSL Flight Activity (Flightaware)

Listeners: 0 out of 1156 total

Emergency/Guard: 121.500
Linkoping Tower: 118.800
Linkoping Tower (Secondary): 123.400
Ostgota Control: 127.350
Ostgota Control: 126.400
Ostgota Control: 135.850
Ostgota Control: 132.950
Ostgota Control: 128.700
Ostgota Control (Malmen Sector): 133.100
Ostgota Control/Sweden Control: 118.400

ESVQ CTAF (Archives)
Koping, Sweden

Feed Status: UP
Listen in your browser - HTML5 player(in browser, HTML5)
Click here to listen with your own player(launches your MP3 player)

ESVQ Flight Activity (Flightaware)

Listeners: 0 out of 1156 total

Koping CTAF: 123.150

EVRA Approach (Archives)
Riga, Latvia

Feed Status: UP
Listen in your browser - HTML5 player(in browser, HTML5)
Click here to listen with your own player(launches your MP3 player)

EVRA 220120Z 20008KT CAVOK 04/01 Q1004 NOSIG

EVRA Flight Activity (Flightaware)

Listeners: 0 out of 1156 total

Riga Approach: 129.925

EVRA CTAF (Archives)
Riga, Latvia

Feed Status: UP
Listen in your browser - HTML5 player(in browser, HTML5)
Click here to listen with your own player(launches your MP3 player)

EVRA 220120Z 20008KT CAVOK 04/01 Q1004 NOSIG

EVRA Flight Activity (Flightaware)

Listeners: 0 out of 1156 total

Riga Approach (evenings): 134.850
Riga CTAF: 123.950

EVRA FIC (Archives)
Riga, Latvia

Feed Status: UP
Listen in your browser - HTML5 player(in browser, HTML5)
Click here to listen with your own player(launches your MP3 player)

EVRA 220120Z 20008KT CAVOK 04/01 Q1004 NOSIG

EVRA Flight Activity (Flightaware)

Listeners: 0 out of 1156 total

Riga FIC: 120.225

EVRA Tower/Guard (Archives)
Riga, Latvia

Feed Status: UP
Listen in your browser - HTML5 player(in browser, HTML5)
Click here to listen with your own player(launches your MP3 player)

EVRA 220120Z 20008KT CAVOK 04/01 Q1004 NOSIG

EVRA Flight Activity (Flightaware)

Listeners: 0 out of 1156 total

Emergency/Guard: 121.500
Riga Tower: 118.100

EYVI Twr/App/Misc (Archives)
Vilnius, Lithuania

Feed Status: UP
Listen in your browser - HTML5 player(in browser, HTML5)
Click here to listen with your own player(launches your MP3 player)

EYVI 220120Z 18005KT CAVOK 03/M01 Q1008 NOSIG

EYVI Flight Activity (Flightaware)

Listeners: 0 out of 1156 total

Emergency / GUARD: 121.500
FlyLAL, AirBaltic transit services: 131.900
FlyLAL, AirBaltic transit services: 131.600
FlyLAL, AirBaltic transit services: 131.500
Kaunas Approach (EYKA): 124.200
Vilnius Approach: 120.700
Vilnius Control: 132.275
Vilnius Control: 133.425
Vilnius Control: 133.300
Vilnius FIS: 123.850
Vilnius Tower: 118.200
Zokniai A/G (mil): 122.775

EYVP CTAF (Archives)
Paluknys, Lithuania

Feed Status: UP
Listen in your browser - HTML5 player(in browser, HTML5)
Click here to listen with your own player(launches your MP3 player)

EYVP Flight Activity (Flightaware)

Listeners: 0 out of 1156 total

EYVP Paluknis CTAF: 119.100

LBBG Twr/App (Archives)
Burgas, Bulgaria

Feed Status: UP
Listen in your browser - HTML5 player(in browser, HTML5)
Click here to listen with your own player(launches your MP3 player)

LBBG 220130Z 25011KT CAVOK 08/06 Q1020 NOSIG

LBBG Flight Activity (Flightaware)

Listeners: 1 out of 1156 total

Burgas Approach: 125.100
Burgas Tower: 118.000

LBLS Tower/FIC
Lesnovo, Bulgaria

Feed Status: DOWN
Offline since: 2021-01-03 03:01:06 UTC

LBSF 220130Z VRB01KT CAVOK 04/02 Q1020 NOSIG

Lesnovo FIC: 130.600
Lesnovo Tower: 122.250

LBPD Tower (Archives)
Plovdiv, Bulgaria

Feed Status: UP
Listen in your browser - HTML5 player(in browser, HTML5)
Click here to listen with your own player(launches your MP3 player)

LBSF 220130Z VRB01KT CAVOK 04/02 Q1020 NOSIG

LBSF Flight Activity (Flightaware)

Listeners: 0 out of 1156 total

Plovdiv Tower: 125.500
Plovdiv Tower: 133.600

LBSF ATIS (Archives)
Sofia, Bulgaria

Feed Status: UP
Listen in your browser - HTML5 player(in browser, HTML5)
Click here to listen with your own player(launches your MP3 player)

LBSF 220130Z VRB01KT CAVOK 04/02 Q1020 NOSIG

LBSF Flight Activity (Flightaware)

Listeners: 0 out of 1156 total

Sofia ATIS: 126.680

LBSF Sofia Control East (Archives)
Sofia, Bulgaria

Feed Status: UP
Listen in your browser - HTML5 player(in browser, HTML5)
Click here to listen with your own player(launches your MP3 player)

LBSF 220130Z VRB01KT CAVOK 04/02 Q1020 NOSIG

LBSF Flight Activity (Flightaware)

Listeners: 0 out of 1156 total

Sofia Control (East/Middle Sector): 129.100
Sofia Control (Varna Sector): 134.700

LBSF Twr/App #1 (Archives)
Sofia, Bulgaria

Feed Status: UP
Listen in your browser - HTML5 player(in browser, HTML5)
Click here to listen with your own player(launches your MP3 player)

LBSF 220130Z VRB01KT CAVOK 04/02 Q1020 NOSIG

LBSF Flight Activity (Flightaware)

Listeners: 0 out of 1156 total

Sofia Approach: 123.700
Sofia Approach: 129.900
Sofia Tower: 118.100
Sofia Tower: 120.200

LBSF Twr/App #2 (Archives)
Sofia, Bulgaria

Feed Status: UP
Listen in your browser - HTML5 player(in browser, HTML5)
Click here to listen with your own player(launches your MP3 player)

LBSF 220130Z VRB01KT CAVOK 04/02 Q1020 NOSIG

LBSF Flight Activity (Flightaware)

Listeners: 0 out of 1156 total

Sofia Approach: 123.700
Sofia Tower: 118.100

LBWN Tower/Approach (Archives)
Varna, Bulgaria

Feed Status: UP
Listen in your browser - HTML5 player(in browser, HTML5)
Click here to listen with your own player(launches your MP3 player)

LBWN 220130Z 32003KT CAVOK 06/04 Q1019 NOSIG

LBWN Flight Activity (Flightaware)

Listeners: 0 out of 1156 total

Varna Approach: 121.000
Varna Tower: 119.500

Bordeaux Control (Archives)
Bordeaux, France

Feed Status: UP
Listen in your browser - HTML5 player(in browser, HTML5)
Click here to listen with your own player(launches your MP3 player)

LFBD 220100Z AUTO 11007KT CAVOK 12/08 Q1014 NOSIG

LFBD Flight Activity (Flightaware)

Listeners: 1 out of 1156 total

Air to Air: 123.450
Bordeaux Control BN FL<300: 127.675
Bordeaux Control L3 FL>300: 134.250
Bordeaux Control R2 FL>300: 133.575
Emergency/Guard: 121.500

LFBD Aquitane Approach (Archives)
Bordeaux, France

Feed Status: UP
Listen in your browser - HTML5 player(in browser, HTML5)
Click here to listen with your own player(launches your MP3 player)

LFBD 220100Z AUTO 11007KT CAVOK 12/08 Q1014 NOSIG

LFBD Flight Activity (Flightaware)

Listeners: 1 out of 1156 total

Aquitane Approach: 129.875

LFBD Bordeaux Control Sector X1 (Archives)
Bordeaux, France

Feed Status: UP
Listen in your browser - HTML5 player(in browser, HTML5)
Click here to listen with your own player(launches your MP3 player)

LFBD 220100Z AUTO 11007KT CAVOK 12/08 Q1014 NOSIG

LFBD Flight Activity (Flightaware)

Listeners: 0 out of 1156 total

Bordeaux Control (Sector X1): 118.425

LFBD Ground (Archives)
Bordeaux, France

Feed Status: UP
Listen in your browser - HTML5 player(in browser, HTML5)
Click here to listen with your own player(launches your MP3 player)

LFBD 220100Z AUTO 11007KT CAVOK 12/08 Q1014 NOSIG

LFBD Flight Activity (Flightaware)

Listeners: 0 out of 1156 total

Merignac Ground: 121.900

LFBD Tower (Archives)
Bordeaux, France

Feed Status: UP
Listen in your browser - HTML5 player(in browser, HTML5)
Click here to listen with your own player(launches your MP3 player)

LFBD 220100Z AUTO 11007KT CAVOK 12/08 Q1014 NOSIG

LFBD Flight Activity (Flightaware)

Listeners: 1 out of 1156 total

Merignac Tower: 118.300

Bordeaux Control (Archives)
Angouleme, France

Feed Status: UP
Listen in your browser - HTML5 player(in browser, HTML5)
Click here to listen with your own player(launches your MP3 player)

LFBD 220100Z AUTO 11007KT CAVOK 12/08 Q1014 NOSIG

LFBD Flight Activity (Flightaware)

Listeners: 1 out of 1156 total

Air to Air: 123.450
Bordeaux Control BN FL<300: 127.675
Bordeaux Control L3 FL>300: 134.250
Bordeaux Control R2 FL>300: 133.575
Emergency/Guard: 121.500

LFLL Tower (Archives)
Lyon, France

Feed Status: UP
Listen in your browser - HTML5 player(in browser, HTML5)
Click here to listen with your own player(launches your MP3 player)

LFLL 220100Z VRB02KT CAVOK 10/08 Q1018 NOSIG

LFLL Flight Activity (Flightaware)

Listeners: 0 out of 1156 total

Lyon Tower: 120.450

Lyon FIS (Archives)
Lyon, France

Feed Status: UP
Listen in your browser - HTML5 player(in browser, HTML5)
Click here to listen with your own player(launches your MP3 player)

LFLL 220100Z VRB02KT CAVOK 10/08 Q1018 NOSIG

LFLL Flight Activity (Flightaware)

Listeners: 0 out of 1156 total

Lyon FIS: 135.200

LFLP Twr/LFLB App
Annecy, France

Feed Status: DOWN
Offline since: 2021-04-21 18:13:39 UTC

LFLP 220100Z AUTO 02004KT CAVOK 06/04 Q1018

Annecy Tower: 118.200
Chambery Approach: 121.205
Chambery Info: 123.700

LFLY Tower (Archives)
Bron, France

Feed Status: UP
Listen in your browser - HTML5 player(in browser, HTML5)
Click here to listen with your own player(launches your MP3 player)

LFLY 220100Z AUTO 15003KT CAVOK 10/08 Q1017 NOSIG

LFLY Flight Activity (Flightaware)

Listeners: 0 out of 1156 total

Lyon-Bron Tower: 118.100

Lyon FIS (Archives)
Bron, France

Feed Status: UP
Listen in your browser - HTML5 player(in browser, HTML5)
Click here to listen with your own player(launches your MP3 player)

LFLL 220100Z VRB02KT CAVOK 10/08 Q1018 NOSIG

LFLL Flight Activity (Flightaware)

Listeners: 0 out of 1156 total

Lyon FIS: 135.200

LFMD Ground/Tower (Archives)
Cannes, France

Feed Status: UP
Listen in your browser - HTML5 player(in browser, HTML5)
Click here to listen with your own player(launches your MP3 player)

LFMD 220100Z AUTO 02005KT 340V050 CAVOK 08/06 Q1018

LFMD Flight Activity (Flightaware)

Listeners: 0 out of 1156 total

Cannes Ground: 121.805
Cannes Tower: 118.625

LFMN Approach (Archives)
Nice, France

Feed Status: UP
Listen in your browser - HTML5 player(in browser, HTML5)
Click here to listen with your own player(launches your MP3 player)

LFMN 220100Z 34008KT CAVOK 10/07 Q1018 NOSIG

LFMN Flight Activity (Flightaware)

Listeners: 0 out of 1156 total

Nice Approach: 128.205

LFMN Control (High) (Archives)
Nice, France

Feed Status: UP
Listen in your browser - HTML5 player(in browser, HTML5)
Click here to listen with your own player(launches your MP3 player)

LFMN 220100Z 34008KT CAVOK 10/07 Q1018 NOSIG

LFMN Flight Activity (Flightaware)

Listeners: 0 out of 1156 total

Marseille Control Sector K1 (FL245-FL305): 126.780

LFMN FIS/Approach (Archives)
Nice, France

Feed Status: UP
Listen in your browser - HTML5 player(in browser, HTML5)
Click here to listen with your own player(launches your MP3 player)

LFMN 220100Z 34008KT CAVOK 10/07 Q1018 NOSIG

LFMN Flight Activity (Flightaware)

Listeners: 0 out of 1156 total

Nice FIS/Approach (TMA4 NICE 2500ft - FL115): 120.850

LFMN Ground/Tower (Archives)
Nice, France

Feed Status: UP
Listen in your browser - HTML5 player(in browser, HTML5)
Click here to listen with your own player(launches your MP3 player)

LFMN 220100Z 34008KT CAVOK 10/07 Q1018 NOSIG

LFMN Flight Activity (Flightaware)

Listeners: 0 out of 1156 total

Nice Ground: 121.700
Nice Tower: 118.700

LFPG Tower (Archives)
Paris, France

Feed Status: UP
Listen in your browser - HTML5 player(in browser, HTML5)
Click here to listen with your own player(launches your MP3 player)

LFPG 220100Z 02010KT CAVOK 07/04 Q1020 NOSIG

LFPG Flight Activity (Flightaware)

Listeners: 1 out of 1156 total

De Gaulle Tower: 120.900
De Gaulle Tower: 119.250

LFPO Approach (Archives)
Paris, France

Feed Status: UP
Listen in your browser - HTML5 player(in browser, HTML5)
Click here to listen with your own player(launches your MP3 player)

LFPO 220100Z 03011KT CAVOK 09/06 Q1020 NOSIG

LFPO Flight Activity (Flightaware)

Listeners: 0 out of 1156 total

Orly Approach: 124.450
Orly Approach: 118.850
Orly Approach: 120.850
Orly Approach: 123.875

LFPO Departure (Archives)
Paris, France

Feed Status: UP
Listen in your browser - HTML5 player(in browser, HTML5)
Click here to listen with your own player(launches your MP3 player)

LFPO 220100Z 03011KT CAVOK 09/06 Q1020 NOSIG

LFPO Flight Activity (Flightaware)

Listeners: 1 out of 1156 total

Orly Departure: 127.750

LFPO Tower (Archives)
Paris, France

Feed Status: UP
Listen in your browser - HTML5 player(in browser, HTML5)
Click here to listen with your own player(launches your MP3 player)

LFPO 220100Z 03011KT CAVOK 09/06 Q1020 NOSIG

LFPO Flight Activity (Flightaware)

Listeners: 5 out of 1156 total

Orly Tower: 120.500
Orly Tower: 118.700

LFPZ ATIS (Archives)
Villacoublay, France

Feed Status: UP
Listen in your browser - HTML5 player(in browser, HTML5)
Click here to listen with your own player(launches your MP3 player)

LFPZ Flight Activity (Flightaware)

Listeners: 0 out of 1156 total

St. Cyr-L'Ecole ATIS: 131.025

LFPZ Tower (Archives)
Villacoublay, France

Feed Status: UP
Listen in your browser - HTML5 player(in browser, HTML5)
Click here to listen with your own player(launches your MP3 player)

LFPZ Flight Activity (Flightaware)

Listeners: 0 out of 1156 total

St. Cyr-L'Ecole Tower: 118.000

LFSB Tower (Archives)
Basel, Switzerland

Feed Status: UP
Listen in your browser - HTML5 player(in browser, HTML5)
Click here to listen with your own player(launches your MP3 player)

LFSB 220100Z AUTO 33003KT CAVOK 05/02 Q1018 TEMPO 4000 BR

LFSB Flight Activity (Flightaware)

Listeners: 0 out of 1156 total

Mulhouse Tower: 118.300

LGAV App/Radar (Archives)
Athens, Greece

Feed Status: UP
Listen in your browser - HTML5 player(in browser, HTML5)
Click here to listen with your own player(launches your MP3 player)

LGAV 220120Z VRB01KT 9999 FEW030 11/05 Q1021 NOSIG

LGAV Flight Activity (Flightaware)

Listeners: 0 out of 1156 total

Athens Approach: 132.975
Athens Information: 130.925
Athens Information: 119.750
Athens Radar (Kerkira-Kefalinia-Paleohora Sectors FL460-FL345): 134.325
Athens Radar (Milos/Sitia Sectors FL460-FL345): 125.200
Athens Radar (Paleohora /Kerkira Sectors FL460-FL345): 133.725
Athens Radar (Paleohora Sector FL460-FL345): 124.625
Athens Radar (Rhodos/Kavos Sector FL460-FL345): 133.325
Emergency/Guard: 121.500
Makedonia Radar (Thessaloniki/Skopelos/Limnos/Kavala Sectors FL460-FL345): 133.575

LGAV Approach (Arrival)
Athens, Greece

Feed Status: DOWN
Offline since: 2021-02-16 07:39:22 UTC

LGAV 220120Z VRB01KT 9999 FEW030 11/05 Q1021 NOSIG

Athens Approach (Arrival): 132.975

LGAV Clearance Delivery
Athens, Greece

Feed Status: DOWN
Offline since: 2021-04-15 10:00:39 UTC

LGAV 220120Z VRB01KT 9999 FEW030 11/05 Q1021 NOSIG

Athens Clearance Delivery: 118.675

LGAV Director
Athens, Greece

Feed Status: DOWN
Offline since: 2021-04-15 10:00:39 UTC

LGAV 220120Z VRB01KT 9999 FEW030 11/05 Q1021 NOSIG

Athens Director: 121.400

LGAV Ground (North)
Athens, Greece

Feed Status: DOWN
Offline since: 2021-04-15 10:00:39 UTC

LGAV 220120Z VRB01KT 9999 FEW030 11/05 Q1021 NOSIG

Athens Ground (North): 121.750

LGAV Ground (South)
Athens, Greece

Feed Status: DOWN
Offline since: 2021-04-15 10:00:39 UTC

LGAV 220120Z VRB01KT 9999 FEW030 11/05 Q1021 NOSIG

Athens Ground (South): 121.950

LGAV Tower (Rwy 3L/21R)
Athens, Greece

Feed Status: DOWN
Offline since: 2021-04-15 10:00:39 UTC

LGAV 220120Z VRB01KT 9999 FEW030 11/05 Q1021 NOSIG

Athens Tower (Rwy 03L/21R): 136.275

LGAV Tower (Rwy 3R/21L)
Athens, Greece

Feed Status: DOWN
Offline since: 2021-04-15 10:00:39 UTC

LGAV 220120Z VRB01KT 9999 FEW030 11/05 Q1021 NOSIG

Athens Tower (Rwy 03R/21L): 118.625

LHBP Approach (Archives)
Budapest, Hungary

Feed Status: UP
Listen in your browser - HTML5 player(in browser, HTML5)
Click here to listen with your own player(launches your MP3 player)

LHBP 220130Z 12004KT CAVOK 07/05 Q1015 NOSIG

LHBP Flight Activity (Flightaware)

Listeners: 0 out of 1156 total

Budapest Approach: 122.975
Budapest Approach (Upper): 123.860

LHBP Approach (Director) (Archives)
Budapest, Hungary

Feed Status: UP
Listen in your browser - HTML5 player(in browser, HTML5)
Click here to listen with your own player(launches your MP3 player)

LHBP 220130Z 12004KT CAVOK 07/05 Q1015 NOSIG

LHBP Flight Activity (Flightaware)

Listeners: 0 out of 1156 total

Budapest Director: 119.510

LHBP ATIS (Archives)
Budapest, Hungary

Feed Status: UP
Listen in your browser - HTML5 player(in browser, HTML5)
Click here to listen with your own player(launches your MP3 player)

LHBP 220130Z 12004KT CAVOK 07/05 Q1015 NOSIG

LHBP Flight Activity (Flightaware)

Listeners: 0 out of 1156 total

Budapest ATIS: 132.380

LHBP Clearance Delivery (Archives)
Budapest, Hungary

Feed Status: UP
Listen in your browser - HTML5 player(in browser, HTML5)
Click here to listen with your own player(launches your MP3 player)

LHBP 220130Z 12004KT CAVOK 07/05 Q1015 NOSIG

LHBP Flight Activity (Flightaware)

Listeners: 0 out of 1156 total

Budapest Clearance Delivery: 134.540

LHBP Ground (Archives)
Budapest, Hungary

Feed Status: UP
Listen in your browser - HTML5 player(in browser, HTML5)
Click here to listen with your own player(launches your MP3 player)

LHBP 220130Z 12004KT CAVOK 07/05 Q1015 NOSIG

LHBP Flight Activity (Flightaware)

Listeners: 0 out of 1156 total

Budapest Ground: 121.910

LHBP Info (Archives)
Budapest, Hungary

Feed Status: UP
Listen in your browser - HTML5 player(in browser, HTML5)
Click here to listen with your own player(launches your MP3 player)

LHBP 220130Z 12004KT CAVOK 07/05 Q1015 NOSIG

LHBP Flight Activity (Flightaware)

Listeners: 0 out of 1156 total

Budapest Info: 119.350

LHBP Tower (Archives)
Budapest, Hungary

Feed Status: UP
Listen in your browser - HTML5 player(in browser, HTML5)
Click here to listen with your own player(launches your MP3 player)

LHBP 220130Z 12004KT CAVOK 07/05 Q1015 NOSIG

LHBP Flight Activity (Flightaware)

Listeners: 0 out of 1156 total

Budapest Tower: 118.100

LHBP Twr/Info (Archives)
Budapest, Hungary

Feed Status: UP
Listen in your browser - HTML5 player(in browser, HTML5)
Click here to listen with your own player(launches your MP3 player)

LHBP 220130Z 12004KT CAVOK 07/05 Q1015 NOSIG

LHBP Flight Activity (Flightaware)

Listeners: 0 out of 1156 total

Budapest Info: 119.350
Budapest Tower: 118.100

LHCC Control (East/West)
Budapest, Hungary

Feed Status: DOWN
Offline since: 2021-04-19 21:38:39 UTC

LHBP 220130Z 12004KT CAVOK 07/05 Q1015 NOSIG

Budapest Control (East Low Sector): 120.375
Budapest Control (West Low Sector): 133.200

LHDC Info/Tower (Archives)
Debrecen, Hungary

Feed Status: UP
Listen in your browser - HTML5 player(in browser, HTML5)
Click here to listen with your own player(launches your MP3 player)

LHDC 220045Z AUTO 18008KT 7000 NSC 08/06 Q1017

LHDC Flight Activity (Flightaware)

Listeners: 0 out of 1156 total

Debrecen Info/Tower: 125.900

LHEM CTAF (Archives)
Esztergom, Hungary

Feed Status: UP
Listen in your browser - HTML5 player(in browser, HTML5)
Click here to listen with your own player(launches your MP3 player)

LHEM Flight Activity (Flightaware)

Listeners: 0 out of 1156 total

Esztergom CTAF: 126.850

LHOY CTAF (Archives)
Ocseny, Hungary

Feed Status: UP
Listen in your browser - HTML5 player(in browser, HTML5)
Click here to listen with your own player(launches your MP3 player)

LHOY Flight Activity (Flightaware)

Listeners: 0 out of 1156 total

Ocseny CTAF: 122.830

LHPR Info/AFIS (Archives)
Gyor, Hungary

Feed Status: UP
Listen in your browser - HTML5 player(in browser, HTML5)
Click here to listen with your own player(launches your MP3 player)

LHPR 220045Z AUTO 27002KT CAVOK 09/06 Q1015

LHPR Flight Activity (Flightaware)

Listeners: 1 out of 1156 total

Gyor AFIS: 129.910

LJLJ Info (Archives)
Ljubljana, Slovenia

Feed Status: UP
Listen in your browser - HTML5 player(in browser, HTML5)
Click here to listen with your own player(launches your MP3 player)

LJLJ 220100Z 30003KT CAVOK 03/02 Q1018 NOSIG

LJLJ Flight Activity (Flightaware)

Listeners: 0 out of 1156 total

Ljubljana Info: 118.475

LJLJ Radar (Archives)
Ljubljana, Slovenia

Feed Status: UP
Listen in your browser - HTML5 player(in browser, HTML5)
Click here to listen with your own player(launches your MP3 player)

LJLJ 220100Z 30003KT CAVOK 03/02 Q1018 NOSIG

LJLJ Flight Activity (Flightaware)

Listeners: 1 out of 1156 total

Ljubljana Approach: 135.275

LJLJ Tower (Archives)
Ljubljana, Slovenia

Feed Status: UP
Listen in your browser - HTML5 player(in browser, HTML5)
Click here to listen with your own player(launches your MP3 player)

LJLJ 220100Z 30003KT CAVOK 03/02 Q1018 NOSIG

LJLJ Flight Activity (Flightaware)

Listeners: 0 out of 1156 total

Ljubljana Tower: 118.000

LJMB Tower (Archives)
Maribor, Slovenia

Feed Status: UP
Listen in your browser - HTML5 player(in browser, HTML5)
Click here to listen with your own player(launches your MP3 player)

LJMB 220100Z AUTO VRB02KT 9999 NSC 04/02 Q1016

LJMB Flight Activity (Flightaware)

Listeners: 1 out of 1156 total

Maribor Tower/Approach: 119.200

LJMS CTAF (Archives)
Murska Sobota, Slovenia

Feed Status: UP
Listen in your browser - HTML5 player(in browser, HTML5)
Click here to listen with your own player(launches your MP3 player)

LJMS Flight Activity (Flightaware)

Listeners: 0 out of 1156 total

Murska Sobota Aerodrome Radio: 123.500

LJPZ Tower
Secovlje, Slovenia

Feed Status: DOWN
Offline since: 2021-04-21 18:31:22 UTC

LJPZ 220100Z AUTO 12003KT 9999 NCD 06/05 Q1019

Portoroz Tower: 124.875

LKKV Tower (Archives)
Karlovy Vary, Czech Republic

Feed Status: UP
Listen in your browser - HTML5 player(in browser, HTML5)
Click here to listen with your own player(launches your MP3 player)

LKKV 220100Z 31004KT 9999 FEW022 05/01 Q1016

LKKV Flight Activity (Flightaware)

Listeners: 0 out of 1156 total

Vary Tower: 121.230

LKPM Tower (Archives)
Pribram, Czech Republic

Feed Status: UP
Listen in your browser - HTML5 player(in browser, HTML5)
Click here to listen with your own player(launches your MP3 player)

LKPM Flight Activity (Flightaware)

Listeners: 0 out of 1156 total

Pribram Tower: 118.755

LKAA FIR (High) (Archives)
Prague, Czech Republic

Feed Status: UP
Listen in your browser - HTML5 player(in browser, HTML5)
Click here to listen with your own player(launches your MP3 player)

LKAA Flight Activity (Flightaware)

Listeners: 0 out of 1156 total

LKAA FIR Sector West High / Praha Radar : 132.065

LKAA FIR (Low) (Archives)
Prague, Czech Republic

Feed Status: UP
Listen in your browser - HTML5 player(in browser, HTML5)
Click here to listen with your own player(launches your MP3 player)

LKAA Flight Activity (Flightaware)

Listeners: 0 out of 1156 total

LKAA FIR Sector West Low / Praha Radar: 120.275

LKPR Approach (Archives)
Prague, Czech Republic

Feed Status: UP
Listen in your browser - HTML5 player(in browser, HTML5)
Click here to listen with your own player(launches your MP3 player)

LKPR 220100Z 29007KT CAVOK 07/02 Q1015 NOSIG

LKPR Flight Activity (Flightaware)

Listeners: 2 out of 1156 total

Prague Approach/Radar: 127.580

LKPR Clearance Del (Archives)
Prague, Czech Republic

Feed Status: UP
Listen in your browser - HTML5 player(in browser, HTML5)
Click here to listen with your own player(launches your MP3 player)

LKPR 220100Z 29007KT CAVOK 07/02 Q1015 NOSIG

LKPR Flight Activity (Flightaware)

Listeners: 0 out of 1156 total

Prague/Ruzyne Clearance Delivery: 120.060

LKPR Director/Ruzyne Radar (Archives)
Prague, Czech Republic

Feed Status: UP
Listen in your browser - HTML5 player(in browser, HTML5)
Click here to listen with your own player(launches your MP3 player)

LKPR 220100Z 29007KT CAVOK 07/02 Q1015 NOSIG

LKPR Flight Activity (Flightaware)

Listeners: 1 out of 1156 total

Prague Director/Ruzyne Radar: 119.010

LKPR Ground (Archives)
Prague, Czech Republic

Feed Status: UP
Listen in your browser - HTML5 player(in browser, HTML5)
Click here to listen with your own player(launches your MP3 player)

LKPR 220100Z 29007KT CAVOK 07/02 Q1015 NOSIG

LKPR Flight Activity (Flightaware)

Listeners: 0 out of 1156 total

Prague/Ruzyne Ground: 121.910

LKPR Tower (Archives)
Prague, Czech Republic

Feed Status: UP
Listen in your browser - HTML5 player(in browser, HTML5)
Click here to listen with your own player(launches your MP3 player)

LKPR 220100Z 29007KT CAVOK 07/02 Q1015 NOSIG

LKPR Flight Activity (Flightaware)

Listeners: 4 out of 1156 total

Prague/Ruzyne Tower: 134.560

LKTB Gnd/Twr/Radar (Archives)
Brno, Czech Republic

Feed Status: UP
Listen in your browser - HTML5 player(in browser, HTML5)
Click here to listen with your own player(launches your MP3 player)

LKTB 220100Z 22005KT CAVOK 07/04 Q1014 NOSIG

LKTB Flight Activity (Flightaware)

Listeners: 0 out of 1156 total

Brno Ground: 125.430
Brno Handling: 131.800
Brno Tower: 119.605
Praha Radar (Approach): 127.350

LMML GndTwr/App/Control (Archives)
Luqa, Malta

Feed Status: UP
Listen in your browser - HTML5 player(in browser, HTML5)
Click here to listen with your own player(launches your MP3 player)

LMML 220115Z 13014KT 9999 NSC 16/13 Q1017 NOSIG

LMML Flight Activity (Flightaware)

Listeners: 0 out of 1156 total

Emergency/Guard: 121.500
Luqa Ground: 121.600
Luqa Radar: 128.150
Luqa Tower: 135.100
Malta Radar - East (Primary): 122.775
Malta Radar - East (Secondary): 123.625
Malta Radar - UHF: 284.500
Malta Radar - West (Primary): 130.975
Malta Radar - West (Secondary): 127.525

LPMA App/LPPC Center (Archives)
Madeira, Portugal

Feed Status: UP
Listen in your browser - HTML5 player(in browser, HTML5)
Click here to listen with your own player(launches your MP3 player)

LPPC Flight Activity (Flightaware)

Listeners: 0 out of 1156 total

Lisboa Control (Madeira Sector): 132.255
Madeira Approach: 119.605

LPMA Approach (Archives)
Madeira, Portugal

Feed Status: UP
Listen in your browser - HTML5 player(in browser, HTML5)
Click here to listen with your own player(launches your MP3 player)

LPMA 220100Z 27005KT 9999 FEW016 18/14 Q1017

LPMA Flight Activity (Flightaware)

Listeners: 0 out of 1156 total

Madeira Approach: 119.605

LPPR Approach #1 (Archives)
Porto, Portugal

Feed Status: UP
Listen in your browser - HTML5 player(in browser, HTML5)
Click here to listen with your own player(launches your MP3 player)

LPPR 220100Z 31005KT 9999 SCT009 BKN030 15/14 Q1010

LPPR Flight Activity (Flightaware)

Listeners: 1 out of 1156 total

Porto Approach: 121.105

LPPT Approach (Archives)
Lisbon, Portugal

Feed Status: UP
Listen in your browser - HTML5 player(in browser, HTML5)
Click here to listen with your own player(launches your MP3 player)

LPPT 220100Z 28004KT 240V300 9999 FEW012 14/13 Q1012

LPPT Flight Activity (Flightaware)

Listeners: 1 out of 1156 total

Lisbon Approach: 119.105

LRCL Twr/App #1 (Archives)
Cluj-Napoca, Romania

Feed Status: UP
Listen in your browser - HTML5 player(in browser, HTML5)
Click here to listen with your own player(launches your MP3 player)

LRCL 220100Z 09003KT CAVOK 06/05 Q1018

LRCL Flight Activity (Flightaware)

Listeners: 1 out of 1156 total

Cluj Approach: 126.425
Cluj Tower: 118.705

LRCL Twr/App/ACC (Archives)
Cluj-Napoca, Romania

Feed Status: UP
Listen in your browser - HTML5 player(in browser, HTML5)
Click here to listen with your own player(launches your MP3 player)

LRCL 220100Z 09003KT CAVOK 06/05 Q1018

LRCL Flight Activity (Flightaware)

Listeners: 0 out of 1156 total

Cluj Approach: 126.425
Cluj Tower: 118.705
Napoc ACC: 127.075

LROP Ground (Archives)
Bucharest, Romania

Feed Status: UP
Listen in your browser - HTML5 player(in browser, HTML5)
Click here to listen with your own player(launches your MP3 player)

LROP 220100Z 29003KT 2000 MIFG BR FEW003 05/05 Q1018 TEMPO 1500 BR

LROP Flight Activity (Flightaware)

Listeners: 0 out of 1156 total

Bucharest Ground: 121.855

LROP Radar (Archives)
Bucharest, Romania

Feed Status: UP
Listen in your browser - HTML5 player(in browser, HTML5)
Click here to listen with your own player(launches your MP3 player)

LROP 220100Z 29003KT 2000 MIFG BR FEW003 05/05 Q1018 TEMPO 1500 BR

LROP Flight Activity (Flightaware)

Listeners: 0 out of 1156 total

Bucharest Radar (Arges Mid sector): 121.175
Bucharest Radar (Arges Top Sector): 123.265
Bucharest Radar (Lomos Top Sector): 132.865

LROP Tower/Approach (Archives)
Bucharest, Romania

Feed Status: UP
Listen in your browser - HTML5 player(in browser, HTML5)
Click here to listen with your own player(launches your MP3 player)

LROP 220100Z 29003KT 2000 MIFG BR FEW003 05/05 Q1018 TEMPO 1500 BR

LROP Flight Activity (Flightaware)

Listeners: 0 out of 1156 total

Bucharest Approach: 119.415
Bucharest Director: 127.155
Bucharest Tower: 118.805

LROP Twr/App/Radar (Archives)
Bucharest, Romania

Feed Status: UP
Listen in your browser - HTML5 player(in browser, HTML5)
Click here to listen with your own player(launches your MP3 player)

LROP 220100Z 29003KT 2000 MIFG BR FEW003 05/05 Q1018 TEMPO 1500 BR

LROP Flight Activity (Flightaware)

Listeners: 9 out of 1156 total

Bucharest Approach: 119.415
Bucharest Director: 127.155
Bucharest Radar (Arges Mid sector): 121.175
Bucharest Radar (Arges Top Sector): 123.265
Bucharest Radar (Lomos Top Sector): 132.865
Bucharest Tower: 118.805

LRSB Tower/CTAF (Archives)
Sibiu, Romania

Feed Status: UP
Listen in your browser - HTML5 player(in browser, HTML5)
Click here to listen with your own player(launches your MP3 player)

LRSB 220100Z 00000KT CAVOK 01/01 Q1018

LRSB Flight Activity (Flightaware)

Listeners: 0 out of 1156 total

Sibiu Tower: 121.305

LRTR Tower (Archives)
Timisoara, Romania

Feed Status: UP
Listen in your browser - HTML5 player(in browser, HTML5)
Click here to listen with your own player(launches your MP3 player)

LRTR 220100Z 10006KT CAVOK 05/05 Q1018 R11/190095

LRTR Flight Activity (Flightaware)

Listeners: 0 out of 1156 total

ARAD Approach: 127.250
Timisoara Tower: 120.100

LSGS Gnd/Twr/App (Archives)
Sion, Switzerland

Feed Status: UP
Listen in your browser - HTML5 player(in browser, HTML5)
Click here to listen with your own player(launches your MP3 player)

LSGS 220120Z AUTO 10004KT CAVOK 08/02 Q1018

LSGS Flight Activity (Flightaware)

Listeners: 0 out of 1156 total

Alpine Jet Service Handling: 131.675
Sion Airport Handling: 131.475
Sion Approach (IFR ARR MIL OFF): 126.825
Sion Ground: 121.700
Sion Tower: 118.275

LSMD Tower (Archives)
Dubendorf, Switzerland

Feed Status: UP
Listen in your browser - HTML5 player(in browser, HTML5)
Click here to listen with your own player(launches your MP3 player)

LSZH 220120Z AUTO 16003KT 9999 NSC 08/05 Q1018 NOSIG

LSZH Flight Activity (Flightaware)

Listeners: 0 out of 1156 total

Dubendorf Tower: 118.975

LSPM AFIS (Archives)
Ambri, Switzerland

Feed Status: UP
Listen in your browser - HTML5 player(in browser, HTML5)
Click here to listen with your own player(launches your MP3 player)

LSPM Flight Activity (Flightaware)

Listeners: 0 out of 1156 total

Ambri AFIS: 118.525

LSZA Tower
Agno, Switzerland

Feed Status: DOWN
Offline since: 2021-04-21 23:08:39 UTC

LSZA 220120Z AUTO VRB01KT 2900 BR NCD 05/05 Q1019

Lugano Tower: 120.250

LSZB Twr/App/Dep (Archives)
Bern, Switzerland

Feed Status: UP
Listen in your browser - HTML5 player(in browser, HTML5)
Click here to listen with your own player(launches your MP3 player)

LSZB 220120Z AUTO 28002KT 9000 NCD 02/02 Q1018

LSZB Flight Activity (Flightaware)

Listeners: 0 out of 1156 total

LSZB Arrival/Departure: 127.325
LSZB Tower: 121.025

LSZG Tower (Archives)
Grenchen, Switzerland

Feed Status: UP
Listen in your browser - HTML5 player(in browser, HTML5)
Click here to listen with your own player(launches your MP3 player)

LSZG 220120Z AUTO 06001KT CAVOK 03/03 Q1018

LSZG Flight Activity (Flightaware)

Listeners: 0 out of 1156 total

Grenchen Tower: 120.100

LSZH Approach (East) (Archives)
Zurich, Switzerland

Feed Status: UP
Listen in your browser - HTML5 player(in browser, HTML5)
Click here to listen with your own player(launches your MP3 player)

LSZH 220120Z AUTO 16003KT 9999 NSC 08/05 Q1018 NOSIG

LSZH Flight Activity (Flightaware)

Listeners: 0 out of 1156 total

Zurich Approach (East): 135.225

LSZH Approach (West) (Archives)
Zurich, Switzerland

Feed Status: UP
Listen in your browser - HTML5 player(in browser, HTML5)
Click here to listen with your own player(launches your MP3 player)

LSZH 220120Z AUTO 16003KT 9999 NSC 08/05 Q1018 NOSIG

LSZH Flight Activity (Flightaware)

Listeners: 1 out of 1156 total

Zurich Approach (West): 118.000

LSZH Apron (South) (Archives)
Zurich, Switzerland

Feed Status: UP
Listen in your browser - HTML5 player(in browser, HTML5)
Click here to listen with your own player(launches your MP3 player)

LSZH 220120Z AUTO 16003KT 9999 NSC 08/05 Q1018 NOSIG

LSZH Flight Activity (Flightaware)

Listeners: 0 out of 1156 total

Zurich Apron (South): 121.755

LSZH Apron (West) (Archives)
Zurich, Switzerland

Feed Status: UP
Listen in your browser - HTML5 player(in browser, HTML5)
Click here to listen with your own player(launches your MP3 player)

LSZH 220120Z AUTO 16003KT 9999 NSC 08/05 Q1018 NOSIG

LSZH Flight Activity (Flightaware)

Listeners: 0 out of 1156 total

Zurich Apron (West): 121.855

LSZH Clearance Delivery (Archives)
Zurich, Switzerland

Feed Status: UP
Listen in your browser - HTML5 player(in browser, HTML5)
Click here to listen with your own player(launches your MP3 player)

LSZH 220120Z AUTO 16003KT 9999 NSC 08/05 Q1018 NOSIG

LSZH Flight Activity (Flightaware)

Listeners: 0 out of 1156 total

Zurich Clearance Delivery: 121.925

LSZH Ground (Archives)
Zurich, Switzerland

Feed Status: UP
Listen in your browser - HTML5 player(in browser, HTML5)
Click here to listen with your own player(launches your MP3 player)

LSZH 220120Z AUTO 16003KT 9999 NSC 08/05 Q1018 NOSIG

LSZH Flight Activity (Flightaware)

Listeners: 0 out of 1156 total

Zurich Ground: 121.905

LSZH Radar 132.815 (Archives)
Zurich, Switzerland

Feed Status: UP
Listen in your browser - HTML5 player(in browser, HTML5)
Click here to listen with your own player(launches your MP3 player)

LSZH 220120Z AUTO 16003KT 9999 NSC 08/05 Q1018 NOSIG

LSZH Flight Activity (Flightaware)

Listeners: 0 out of 1156 total

Zurich Radar: 132.815

LSZH Radar 133.050 (Archives)
Zurich, Switzerland

Feed Status: UP
Listen in your browser - HTML5 player(in browser, HTML5)
Click here to listen with your own player(launches your MP3 player)

LSZH 220120Z AUTO 16003KT 9999 NSC 08/05 Q1018 NOSIG

LSZH Flight Activity (Flightaware)

Listeners: 0 out of 1156 total

Zurich Radar: 133.050

LSZH Radar 133.405 (Archives)
Zurich, Switzerland

Feed Status: UP
Listen in your browser - HTML5 player(in browser, HTML5)
Click here to listen with your own player(launches your MP3 player)

LSZH 220120Z AUTO 16003KT 9999 NSC 08/05 Q1018 NOSIG

LSZH Flight Activity (Flightaware)

Listeners: 0 out of 1156 total

Zurich Radar: 133.405

LSZH Radar 133.690 (Archives)
Zurich, Switzerland

Feed Status: UP
Listen in your browser - HTML5 player(in browser, HTML5)
Click here to listen with your own player(launches your MP3 player)

LSZH 220120Z AUTO 16003KT 9999 NSC 08/05 Q1018 NOSIG

LSZH Flight Activity (Flightaware)

Listeners: 0 out of 1156 total

Zurich Radar: 133.690

LSZH Radar 133.905 (Archives)
Zurich, Switzerland

Feed Status: UP
Listen in your browser - HTML5 player(in browser, HTML5)
Click here to listen with your own player(launches your MP3 player)

LSZH 220120Z AUTO 16003KT 9999 NSC 08/05 Q1018 NOSIG

LSZH Flight Activity (Flightaware)

Listeners: 0 out of 1156 total

Zurich Radar (Below FL240 East): 133.905

LSZH Radar 134.605 (Archives)
Zurich, Switzerland

Feed Status: UP
Listen in your browser - HTML5 player(in browser, HTML5)
Click here to listen with your own player(launches your MP3 player)

LSZH 220120Z AUTO 16003KT 9999 NSC 08/05 Q1018 NOSIG

LSZH Flight Activity (Flightaware)

Listeners: 0 out of 1156 total

Zurich Radar (FL330-350): 134.605

LSZH Radar 135.680 (Archives)
Zurich, Switzerland

Feed Status: UP
Listen in your browser - HTML5 player(in browser, HTML5)
Click here to listen with your own player(launches your MP3 player)

LSZH 220120Z AUTO 16003KT 9999 NSC 08/05 Q1018 NOSIG

LSZH Flight Activity (Flightaware)

Listeners: 0 out of 1156 total


LSZH Radar 136.155 (Archives)
Zurich, Switzerland

Feed Status: UP
Listen in your browser - HTML5 player(in browser, HTML5)
Click here to listen with your own player(launches your MP3 player)

LSZH 220120Z AUTO 16003KT 9999 NSC 08/05 Q1018 NOSIG

LSZH Flight Activity (Flightaware)

Listeners: 0 out of 1156 total

Zurich Radar (Below FL240 North): 136.155

LSZH Tower (Archives)
Zurich, Switzerland

Feed Status: UP
Listen in your browser - HTML5 player(in browser, HTML5)
Click here to listen with your own player(launches your MP3 player)

LSZH 220120Z AUTO 16003KT 9999 NSC 08/05 Q1018 NOSIG

LSZH Flight Activity (Flightaware)

Listeners: 3 out of 1156 total

Zurich Tower: 118.100

LSZH Tower (14/32) (Archives)
Zurich, Switzerland

Feed Status: UP
Listen in your browser - HTML5 player(in browser, HTML5)
Click here to listen with your own player(launches your MP3 player)

LSZH 220120Z AUTO 16003KT 9999 NSC 08/05 Q1018 NOSIG

LSZH Flight Activity (Flightaware)

Listeners: 0 out of 1156 total

Zurich Tower (Rwy 14 App/32 Takeoff): 120.225

LSZH Twr/Gnd (backup) (Archives)
Zurich, Switzerland

Feed Status: UP
Listen in your browser - HTML5 player(in browser, HTML5)
Click here to listen with your own player(launches your MP3 player)

LSZH 220120Z AUTO 16003KT 9999 NSC 08/05 Q1018 NOSIG

LSZH Flight Activity (Flightaware)

Listeners: 0 out of 1156 total

Zurich Twr/Gnd (backup): 119.700

LSZL Tower (Archives)
Locarno, Switzerland

Feed Status: UP
Listen in your browser - HTML5 player(in browser, HTML5)
Click here to listen with your own player(launches your MP3 player)

LSZL 220120Z AUTO 00000KT 7000NDV NCD 05/05 Q1019 RMK

LSZL Flight Activity (Flightaware)

Listeners: 0 out of 1156 total


LSZN CTAF (Archives)
Zurich, Switzerland

Feed Status: UP
Listen in your browser - HTML5 player(in browser, HTML5)
Click here to listen with your own player(launches your MP3 player)

LSZN Flight Activity (Flightaware)

Listeners: 0 out of 1156 total

Hausen am Albis CTAF: 130.755

LSZR Tower (Archives)
Altenrhein, Switzerland

Feed Status: UP
Listen in your browser - HTML5 player(in browser, HTML5)
Click here to listen with your own player(launches your MP3 player)

LSZR 220120Z AUTO VRB02KT 9999 SCT095 08/04 Q1018

LSZR Flight Activity (Flightaware)

Listeners: 1 out of 1156 total

Altenrhein Tower: 135.425

LSZW CTAF (Archives)
Thun, Switzerland

Feed Status: UP
Listen in your browser - HTML5 player(in browser, HTML5)
Click here to listen with your own player(launches your MP3 player)

LSZW Flight Activity (Flightaware)

Listeners: 0 out of 1156 total

Thun CTAF/Info: 123.250

LTBA Gnd/Twr/App (Archives)
Istanbul, Turkey

Feed Status: UP
Listen in your browser - HTML5 player(in browser, HTML5)
Click here to listen with your own player(launches your MP3 player)

LTBA 220120Z 25003KT CAVOK 11/09 Q1021 NOSIG RMK RWY23 25005KT

LTBA Flight Activity (Flightaware)

Listeners: 3 out of 1156 total

Istanbul Approach: 126.425
Istanbul Ground: 121.800
Istanbul Tower: 118.100

LTFJ Del/Gnd/Twr (Archives)
Istanbul, Turkey

Feed Status: UP
Listen in your browser - HTML5 player(in browser, HTML5)
Click here to listen with your own player(launches your MP3 player)

LTFJ 220120Z 05002KT CAVOK 09/07 Q1021 NOSIG RMK RWY24 07002KT

LTFJ Flight Activity (Flightaware)

Listeners: 2 out of 1156 total

Pegasus Dispatch: 131.750

LUKK ACC #1 (Archives)
Chisinau, Moldova

Feed Status: UP
Listen in your browser - HTML5 player(in browser, HTML5)
Click here to listen with your own player(launches your MP3 player)

LUKK 220130Z 12003KT CAVOK 05/04 Q1017 R26/CLRD// NOSIG

LUKK Flight Activity (Flightaware)

Listeners: 0 out of 1156 total

Chisinau ACC: 130.975

LUKK ACC #2 (Archives)
Chisinau, Moldova

Feed Status: UP
Listen in your browser - HTML5 player(in browser, HTML5)
Click here to listen with your own player(launches your MP3 player)

LUKK 220130Z 12003KT CAVOK 05/04 Q1017 R26/CLRD// NOSIG

LUKK Flight Activity (Flightaware)

Listeners: 0 out of 1156 total

Chisinau ACC: 128.975

LUKK Air to Air (Archives)
Chisinau, Moldova

Feed Status: UP
Listen in your browser - HTML5 player(in browser, HTML5)
Click here to listen with your own player(launches your MP3 player)

LUKK 220130Z 12003KT CAVOK 05/04 Q1017 R26/CLRD// NOSIG

LUKK Flight Activity (Flightaware)

Listeners: 0 out of 1156 total

Chisinau Air to Air: 123.450

LUKK Alternate (Archives)
Chisinau, Moldova

Feed Status: UP
Listen in your browser - HTML5 player(in browser, HTML5)
Click here to listen with your own player(launches your MP3 player)

LUKK 220130Z 12003KT CAVOK 05/04 Q1017 R26/CLRD// NOSIG

LUKK Flight Activity (Flightaware)

Listeners: 0 out of 1156 total

Chisinau Alternate: 129.725

LUKK Approach #1 (Archives)
Chisinau, Moldova

Feed Status: UP
Listen in your browser - HTML5 player(in browser, HTML5)
Click here to listen with your own player(launches your MP3 player)

LUKK 220130Z 12003KT CAVOK 05/04 Q1017 R26/CLRD// NOSIG

LUKK Flight Activity (Flightaware)

Listeners: 0 out of 1156 total

Chisinau Approach: 133.300

LUKK Approach #2 (Archives)
Chisinau, Moldova

Feed Status: UP
Listen in your browser - HTML5 player(in browser, HTML5)
Click here to listen with your own player(launches your MP3 player)

LUKK 220130Z 12003KT CAVOK 05/04 Q1017 R26/CLRD// NOSIG

LUKK Flight Activity (Flightaware)

Listeners: 0 out of 1156 total

Chisinau Approach: 133.300

LUKK Emergency/Guard (Archives)
Chisinau, Moldova

Feed Status: UP
Listen in your browser - HTML5 player(in browser, HTML5)
Click here to listen with your own player(launches your MP3 player)

LUKK 220130Z 12003KT CAVOK 05/04 Q1017 R26/CLRD// NOSIG

LUKK Flight Activity (Flightaware)

Listeners: 0 out of 1156 total

Emergency/Guard: 121.500

LUKK Ground #2 (Archives)
Chisinau, Moldova

Feed Status: UP
Listen in your browser - HTML5 player(in browser, HTML5)
Click here to listen with your own player(launches your MP3 player)

LUKK 220130Z 12003KT CAVOK 05/04 Q1017 R26/CLRD// NOSIG

LUKK Flight Activity (Flightaware)

Listeners: 0 out of 1156 total

Chisinau Ground: 121.800

LUKK Handling (Archives)
Chisinau, Moldova

Feed Status: UP
Listen in your browser - HTML5 player(in browser, HTML5)
Click here to listen with your own player(launches your MP3 player)

LUKK 220130Z 12003KT CAVOK 05/04 Q1017 R26/CLRD// NOSIG

LUKK Flight Activity (Flightaware)

Listeners: 0 out of 1156 total

Chisinau Handling: 131.700

LUKK Tower #2 (Archives)
Chisinau, Moldova

Feed Status: UP
Listen in your browser - HTML5 player(in browser, HTML5)
Click here to listen with your own player(launches your MP3 player)

LUKK 220130Z 12003KT CAVOK 05/04 Q1017 R26/CLRD// NOSIG

LUKK Flight Activity (Flightaware)

Listeners: 0 out of 1156 total

Chisinau Tower: 118.100

LWSK ACC (Lower) (Archives)
Petrovec, North Macedonia, Republic of

Feed Status: UP
Listen in your browser - HTML5 player(in browser, HTML5)
Click here to listen with your own player(launches your MP3 player)

LWSK 220130Z 00000KT CAVOK 03/01 Q1021 NOSIG

LWSK Flight Activity (Flightaware)

Listeners: 0 out of 1156 total

Skopje Control (Lower): 119.375

LWSK ACC (Upper) (Archives)
Petrovec, North Macedonia, Republic of

Feed Status: UP
Listen in your browser - HTML5 player(in browser, HTML5)
Click here to listen with your own player(launches your MP3 player)

LWSK 220130Z 00000KT CAVOK 03/01 Q1021 NOSIG

LWSK Flight Activity (Flightaware)

Listeners: 0 out of 1156 total

Skopje Control (Upper): 120.015

LWSK Approach (Archives)
Petrovec, North Macedonia, Republic of

Feed Status: UP
Listen in your browser - HTML5 player(in browser, HTML5)
Click here to listen with your own player(launches your MP3 player)

LWSK 220130Z 00000KT CAVOK 03/01 Q1021 NOSIG

LWSK Flight Activity (Flightaware)

Listeners: 0 out of 1156 total

Skopje Approach/Departure: 120.300

LWSK ATIS (Archives)
Petrovec, North Macedonia, Republic of

Feed Status: UP
Listen in your browser - HTML5 player(in browser, HTML5)
Click here to listen with your own player(launches your MP3 player)

LWSK 220130Z 00000KT CAVOK 03/01 Q1021 NOSIG

LWSK Flight Activity (Flightaware)

Listeners: 0 out of 1156 total

Skopje ATIS: 130.125

LWSK Tower (Archives)
Petrovec, North Macedonia, Republic of

Feed Status: UP
Listen in your browser - HTML5 player(in browser, HTML5)
Click here to listen with your own player(launches your MP3 player)

LWSK 220130Z 00000KT CAVOK 03/01 Q1021 NOSIG

LWSK Flight Activity (Flightaware)

Listeners: 0 out of 1156 total

Skopje Tower: 118.500

LYNI Twr/App (Archives)
Nis, Serbia

Feed Status: UP
Listen in your browser - HTML5 player(in browser, HTML5)
Click here to listen with your own player(launches your MP3 player)

LYNI 220100Z VRB02KT CAVOK 04/02 Q1020 NOSIG

LYNI Flight Activity (Flightaware)

Listeners: 0 out of 1156 total

Nis Approach: 119.525
Nis Approach/Tower (Alternate): 136.075
Nis Tower: 118.950

LZIB Gnd/Twr/App (Archives)
Bratislava, Slovakia

Feed Status: UP
Listen in your browser - HTML5 player(in browser, HTML5)
Click here to listen with your own player(launches your MP3 player)

LZIB 220130Z 30002KT CAVOK 08/03 Q1015

LZIB Flight Activity (Flightaware)

Listeners: 0 out of 1156 total

BTS Handling: 131.850
Stefanik Ground: 120.900
Stefanik Ground: 121.700
Stefanik Radar: 134.925
Stefanik Tower: 118.300

LZKZ Gnd/Twr/App (Archives)
Kosice, Slovakia

Feed Status: UP
Listen in your browser - HTML5 player(in browser, HTML5)
Click here to listen with your own player(launches your MP3 player)

LZKZ 220130Z VRB02KT CAVOK 07/05 Q1015

LZKZ Flight Activity (Flightaware)

Listeners: 0 out of 1156 total

Kosice Approach: 129.350
Kosice Approach (backup): 119.850
Kosice Ground: 121.700
Kosice Handling: 131.850
Kosice Tower: 120.400

LZNI CTAF (Archives)
Nitra, Slovakia

Feed Status: UP
Listen in your browser - HTML5 player(in browser, HTML5)
Click here to listen with your own player(launches your MP3 player)

LZNI Flight Activity (Flightaware)

Listeners: 0 out of 1156 total

Nitra Traffic Radio: 123.405

LZPE CTAF/UNICOM (Archives)
Prievidza, Slovakia

Feed Status: UP
Listen in your browser - HTML5 player(in browser, HTML5)
Click here to listen with your own player(launches your MP3 player)

LZPE Flight Activity (Flightaware)

Listeners: 0 out of 1156 total

Prievidza CTAF/UNICOM: 123.055

LZPP Ground/Tower (Archives)
Piestany, Slovakia

Feed Status: UP
Listen in your browser - HTML5 player(in browser, HTML5)
Click here to listen with your own player(launches your MP3 player)

LZPP 220100Z AUTO 02002KT 9999 07/06 Q1014

LZPP Flight Activity (Flightaware)

Listeners: 0 out of 1156 total

Piestany Ground: 121.700
Piestany Tower: 118.575

LZPT CTAF (Archives)
Partizanske, Slovakia

Feed Status: UP
Listen in your browser - HTML5 player(in browser, HTML5)
Click here to listen with your own player(launches your MP3 player)

LZPT Flight Activity (Flightaware)

Listeners: 0 out of 1156 total

Male Bielice CTAF: 123.500

UIAA Twr/App/Center
Chita, Russia

Feed Status: DOWN
Offline since: 2021-02-15 23:24:39 UTC

Center: 135.600
Chita Approach: 122.000
Chita Tower: 118.200

UKKK Gnd/Twr/ACC
Kyiv, Ukraine

Feed Status: DOWN
Offline since: 2020-02-16 19:49:23 UTC

UKKK 220100Z 26002MPS CAVOK 06/03 Q1014 R26/190060 NOSIG

Emergency/Guard: 121.500
Kyiv Radar ACC: 122.775
Kyiv Radar ACC: 124.675
Kyiv Radar ACC: 127.725
Kyiv Radar ACC: 128.175
Kyiv Radar ACC: 125.300
Kyiv Zhuliany Ground: 119.000
Kyiv Zhuliany Tower: 120.700

URKK Gnd/Twr/App (Archives)
Krasnodar, Russia

Feed Status: UP
Listen in your browser - HTML5 player(in browser, HTML5)
Click here to listen with your own player(launches your MP3 player)

URKK 220100Z 33002MPS 6000 NSC 07/06 Q1021 R23L/CLRD70 TEMPO 0500 FG SCT002 RMK QFE763

URKK Flight Activity (Flightaware)

Listeners: 1 out of 1156 total

Krasnodar Approach: 129.600
Krasnodar Ground: 119.000
Krasnodar Radar: 121.300
Krasnodar Tower: 118.200

URMT Twr/App/Control (Archives)
Stavropol, Russia

Feed Status: UP
Listen in your browser - HTML5 player(in browser, HTML5)
Click here to listen with your own player(launches your MP3 player)

URMT 220100Z 06002MPS CAVOK 08/06 Q1020 R25/150060 TEMPO 0300 FG BKN002 BKN020 RMK QFE726

URMT Flight Activity (Flightaware)

Listeners: 1 out of 1156 total

Stavropol Approach: 120.300
Stavropol Control: 118.250
Stavropol Tower: 120.900

URSS Gnd/Twr/App (Archives)
Sochi, Russia

Feed Status: UP
Listen in your browser - HTML5 player(in browser, HTML5)
Click here to listen with your own player(launches your MP3 player)

URSS 220100Z 05002MPS 9999 NSC 10/09 Q1020 R02/010070 R06/010070 NOSIG RMK R06/00000MPS QFE764

URSS Flight Activity (Flightaware)

Listeners: 0 out of 1156 total

Sochi Approach: 118.300
Sochi Approach: 119.700
Sochi District (Small Aircraft): 118.500
Sochi Start: 121.200
Sochi Taxi: 119.000
Sochi Tower: 124.600

USDD Gnd/Twr/App/Control (Archives)
Salekhard, Russia

Feed Status: UP
Listen in your browser - HTML5 player(in browser, HTML5)
Click here to listen with your own player(launches your MP3 player)


USDD Flight Activity (Flightaware)

Listeners: 0 out of 1156 total

Salekhard Control: 132.300
Salekhard Ground: 118.800
Salekhard Info: 125.200
Salekhard Krug: 120.800
Salekhard Tower: 118.600
Salekhard Transit: 131.700

UUEE Twr/App/Radar (Archives)
Moscow, Russia

Feed Status: UP
Listen in your browser - HTML5 player(in browser, HTML5)
Click here to listen with your own player(launches your MP3 player)

UUEE 220100Z 20003MPS CAVOK 05/02 Q1011 R24C/290045 R24R/290045 NOSIG

UUEE Flight Activity (Flightaware)

Listeners: 1 out of 1156 total

Sheremetyevo Radar: 118.100
Sheremetyevo Radar/Departure: 126.600
Sheremetyevo Tower: 131.500
Sheremetyevo Tower (Rwy 24R/06L): 118.700